YYYY MM/DD hh:mm	Temp	Humid	W_dir	W_spd	Barom	T_int	Light	Power	Temp2	P2	Snow	T_mid	T_base	Precip
Year Date  Time 	(F)	(%)	(Deg)	(MPH)	("Hg)	(F)	/1000	(V)	(F)	-	(")	(F)	(F)	(")
2017 03/21 00:00	29.0	102.7	98.5	10.9	29.75	47.6	23.8	13.02	-39.9	0	90.2	25.4	31.7	0	1	0	0	0	39.5	33.9	63.9
2017 03/21 00:15	28.5	102.5	81.1	13.9	29.75	47.3	0.3	13.01	-40.0	0	90.3	25.4	31.8	0	0	0	0	0	39.5	33.9	63.9
2017 03/21 00:30	30.5	103.0	116.1	12.4	29.74	47.0	0.0	12.98	-40.0	0	90.2	25.4	31.7	0	0	0	0	0	39.4	33.9	63.9
2017 03/21 00:45	30.2	102.7	141.2	11.5	29.74	46.6	2.7	12.98	-40.0	0	90.2	25.4	31.8	0	1	0	0	0	39.2	33.7	63.9
2017 03/21 01:00	32.1	103.0	142.5	15.1	29.73	46.4	1.4	13.00	-40.0	0	90.2	25.4	32.0	0	0	0	0	0	39.0	33.7	64.0
2017 03/21 01:15	32.4	102.9	178.1	17.6	29.72	46.1	0.0	13.01	-40.0	0	90.2	26.3	32.1	0	0	0	0	0	39.2	33.7	64.0
2017 03/21 01:30	33.7	102.9	148.1	16.4	29.72	45.9	0.0	12.98	-40.0	0	90.3	26.3	32.3	0	0	0	0	0	39.0	33.7	64.0
2017 03/21 01:45	34.4	102.9	133.6	10.9	29.72	45.6	-0.3	13.00	-39.9	0	90.2	28.1	33.3	0	0	0	0	0	39.0	33.7	64.0
2017 03/21 02:00	34.1	102.7	293.7	12.7	29.71	45.3	0.0	12.98	-40.0	0	90.3	28.1	33.3	0	0	0	0	0	38.9	33.7	64.0
2017 03/21 02:15	33.9	102.6	144.3	11.4	29.70	45.1	-0.3	12.98	-40.0	0	90.3	27.2	33.0	0	0	0	0	0	38.9	33.7	64.0
2017 03/21 02:30	33.4	102.7	125.2	13.1	29.69	44.8	0.0	13.01	-39.9	0	90.2	27.2	32.5	0	0	0	0	0	38.9	33.6	64.0
2017 03/21 02:45	33.8	102.1	142.9	16.4	29.69	44.6	13.6	13.02	-40.0	0	90.2	26.3	32.3	0	0	0	0	0	38.8	33.7	64.0
2017 03/21 03:00	33.7	101.6	134.8	13.4	29.68	44.4	0.0	13.02	-40.0	0	90.2	26.3	32.1	0	0	0	0	0	38.5	33.7	63.9
2017 03/21 03:15	33.9	100.9	111.8	16.9	29.67	44.2	0.0	12.98	-39.9	0	90.3	26.3	32.1	0	0	0	0	0	38.4	33.6	63.9
2017 03/21 03:30	32.9	100.7	99.4	8.0	29.66	44.0	0.0	13.01	-39.9	0	90.2	27.2	32.5	0	0	0	0	0	38.4	33.6	63.9
2017 03/21 03:45	32.6	101.8	133.2	14.6	29.65	43.8	-0.3	13.00	-40.0	0	90.2	27.2	32.5	0	0	0	0	0	38.5	33.6	63.9
2017 03/21 04:00	32.7	101.9	103.3	16.4	29.65	43.7	0.0	12.99	-40.1	0	90.1	27.2	32.6	0	0	0	0	0	38.5	33.6	64.0
2017 03/21 04:15	31.7	101.9	104.9	16.8	29.65	43.5	2.7	13.00	-40.1	0	90.3	27.2	32.7	0	0	0	0	0	38.4	33.6	64.0
2017 03/21 04:30	31.8	102.0	89.3	12.5	29.63	43.4	0.0	13.02	-40.0	0	90.2	27.2	32.4	0	0	0	0	0	38.5	33.6	64.0
2017 03/21 04:45	31.4	102.3	100.9	16.0	29.63	43.2	-0.3	13.00	-40.0	0	90.3	27.2	32.6	0	0	0	0	0	38.4	33.6	64.0
2017 03/21 05:00	33.2	100.0	102.8	12.9	29.62	43.1	-0.3	12.99	-40.1	0	90.3	27.2	33.2	0	0	0	0	0	38.2	33.5	63.9
2017 03/21 05:15	33.1	101.4	97.7	14.5	29.62	43.0	0.0	12.98	-40.0	0	90.2	28.1	33.4	0	0	0	0	0	38.0	33.5	63.9
2017 03/21 05:30	33.8	99.6	93.2	6.8	29.62	42.8	0.0	13.00	-40.0	0	90.2	28.1	33.5	0	0	0	0	0	37.9	33.5	63.9
2017 03/21 05:45	34.8	98.2	144.3	16.4	29.62	42.6	-0.3	13.01	-40.0	0	90.2	28.1	33.4	0	0	0	0	0	37.9	33.5	63.9
2017 03/21 06:00	34.5	97.8	116.9	9.2	29.62	42.5	0.0	13.00	-39.9	0	90.2	28.1	33.5	0	0	0	0	0	38.0	33.5	63.9
2017 03/21 06:15	34.3	97.9	123.9	14.0	29.62	42.4	-0.3	13.01	-40.0	0	90.2	28.1	33.5	0	0	0	0	0	37.9	33.4	63.9
2017 03/21 06:30	35.8	94.1	110.9	14.4	29.61	42.2	0.3	12.98	-39.9	0	90.3	27.2	33.6	0	0	0	0	0	38.0	33.5	63.9
2017 03/21 06:45	33.7	97.5	107.5	12.4	29.61	42.1	6.8	13.00	-40.0	0	90.2	28.1	34.0	0	0	0	0	0	37.9	33.4	63.9
2017 03/21 07:00	33.3	98.4	86.6	14.7	29.60	42.0	129.3	12.98	-40.0	0	90.2	27.2	33.7	0	0	0	0	0	38.0	33.4	64.0
2017 03/21 07:15	32.2	99.7	88.0	10.5	29.60	41.8	318.7	12.98	-40.4	0	90.1	28.1	34.0	0	0	0	0	0	37.9	33.4	64.0
2017 03/21 07:30	31.0	101.2	82.3	14.0	29.60	41.7	452.4	13.01	-40.0	0	90.2	28.1	33.7	0	0	0	0	0	37.8	33.4	64.0
2017 03/21 07:45	31.6	101.1	95.2	20.6	29.59	41.7	577.3	12.99	-40.1	0	90.2	26.3	32.2	0	0	0	0	0	37.6	33.4	64.0
2017 03/21 08:00	30.9	101.9	96.5	26.7	29.58	41.5	633.3	12.97	-40.0	0	90.2	26.3	32.4	0	0	0	0	0	37.6	33.4	64.0
2017 03/21 08:15	32.8	101.5	122.7	32.0	29.57	41.5	693.0	12.98	-40.1	0	90.2	27.2	33.0	0	0	0	0	0	37.6	33.4	64.0
2017 03/21 08:30	31.2	100.3	96.4	25.4	29.57	41.4	763.0	12.98	-40.0	0	90.2	28.1	34.0	0	0	0	0	0	37.6	33.3	64.0
2017 03/21 08:45	31.6	102.8	103.8	30.1	29.57	41.3	716.0	12.99	-39.9	0	90.1	28.1	33.9	0	0	0	0	0	37.5	33.3	64.0
2017 03/21 09:00	31.4	102.7	124.0	17.8	29.58	41.3	741.0	12.99	-40.1	0	90.2	28.1	34.0	0	0	0	0	0	37.5	33.3	64.0
2017 03/21 09:15	32.6	103.0	334.1	8.0	29.59	41.1	755.0	12.99	-40.1	0	90.0	29.0	34.9	0	0	0	0	0	37.6	33.4	64.0
2017 03/21 09:30	31.2	102.7	223.1	22.1	29.59	41.1	800.0	12.99	-39.9	0	90.2	29.0	35.4	0	0	0	0	0	37.6	33.4	64.0
2017 03/21 09:45	30.3	102.9	224.1	26.8	29.60	41.0	797.0	12.99	-39.9	0	90.2	29.0	35.2	0	0	0	0	0	37.7	33.4	64.0
2017 03/21 10:00	30.0	103.0	232.5	25.4	29.61	40.9	817.0	12.99	-40.0	0	90.0	28.1	35.2	0	0	0	0	0	37.6	33.5	64.1
2017 03/21 10:15	29.6	103.0	232.9	27.4	29.60	40.8	841.0	12.99	-40.0	0	90.2	28.1	34.8	0	0	0	0	0	37.6	33.5	64.1
2017 03/21 10:30	29.5	103.0	226.9	23.3	29.60	40.8	863.0	12.98	-39.9	0	90.1	29.0	34.8	0	1	0	0	0	37.6	33.5	64.1
2017 03/21 10:45	29.3	103.0	217.4	23.9	29.60	40.7	844.0	12.99	-40.0	0	90.2	29.0	35.0	0	0	0	0	0	37.6	33.6	64.1
2017 03/21 11:00	29.8	102.8	217.5	20.2	29.60	40.6	896.0	12.99	-40.0	0	89.8	29.0	35.4	0	0	0	0	0	37.7	33.6	64.3
2017 03/21 11:15	29.9	103.0	242.3	22.4	29.60	40.5	906.0	13.01	-40.0	0	90.4	29.9	36.1	0	0	0	0	0	37.6	33.6	64.3
2017 03/21 11:30	30.4	102.9	240.1	18.4	29.60	40.5	907.0	12.99	-40.1	0	90.3	30.8	36.3	0	0	0	0	0	37.7	33.6	64.3
2017 03/21 11:45	31.1	103.0	225.2	21.9	29.60	40.5	896.0	12.99	-40.0	0	90.1	31.7	36.8	0	1	0	0	0	37.7	33.7	64.3
2017 03/21 12:00	31.2	103.2	215.3	14.8	29.60	40.5	916.0	13.01	-39.9	0	90.1	32.6	38.5	0	0	0	0	0	37.9	33.7	64.4
2017 03/21 12:15	31.1	103.1	212.9	16.8	29.58	40.5	914.0	12.99	-40.0	0	90.3	34.4	39.6	0	0	0	0	0	38.2	33.7	64.4
2017 03/21 12:30	31.7	103.1	156.9	5.1	29.59	40.5	911.0	12.99	-40.0	0	90.6	34.4	40.5	0	2	0	0	0	38.9	33.9	64.4
2017 03/21 12:45	31.8	103.0	196.3	12.0	29.59	40.5	905.0	12.98	-40.1	0	90.6	35.3	40.2	0	3	0	0	0	39.3	33.9	64.4
2017 03/21 13:00	32.0	103.0	214.4	5.2	29.59	40.5	908.0	13.01	-40.0	0	90.5	35.3	41.8	0	0	0	0	0	39.7	34.0	64.5
2017 03/21 13:15	32.1	102.9	223.7	6.7	29.59	40.5	903.0	12.99	-40.0	0	90.4	36.2	42.4	0	0	0	0	0	40.7	34.1	64.5
2017 03/21 13:30	32.3	102.7	239.7	3.6	29.59	40.5	911.0	12.99	-39.9	0	90.2	37.1	42.3	0	0	0	0	0	41.7	34.1	64.5
2017 03/21 13:45	32.9	102.5	182.5	6.4	29.59	40.6	908.0	12.99	-40.0	0	90.4	36.2	44.1	0	0	0	0	0	42.7	34.2	64.5
2017 03/21 14:00	33.1	102.4	223.0	11.9	29.59	40.7	937.0	12.99	-40.0	0	90.0	40.7	45.6	0	0	0	0	0	43.9	34.3	64.5
2017 03/21 14:15	33.8	102.0	256.2	15.8	29.59	40.8	933.0	13.00	-40.0	0	90.3	39.8	45.1	0	0	0	0	0	45.3	34.4	64.5
2017 03/21 14:30	34.4	102.0	214.2	8.3	29.59	40.9	906.0	12.99	-40.0	0	90.0	43.4	45.1	0	0	0	0	0	46.2	34.5	64.5
2017 03/21 14:45	35.1	101.4	237.0	12.4	29.59	41.0	925.0	13.01	-40.0	0	90.2	41.6	47.0	0	0	0	0	0	47.5	34.8	64.5
2017 03/21 15:00	34.9	99.5	231.5	10.1	29.59	41.1	918.0	12.99	-39.9	0	90.2	40.7	45.6	0	0	0	0	0	48.6	35.0	64.4
2017 03/21 15:15	35.3	98.4	248.3	9.7	29.59	41.4	922.0	13.00	-39.9	0	90.2	38.9	44.7	0	0	0	0	0	49.0	35.2	64.4
2017 03/21 15:30	35.5	96.0	213.0	15.2	29.59	41.4	926.0	12.96	-40.0	0	89.8	41.6	45.6	0	0	0	0	0	49.5	35.3	64.4
2017 03/21 15:45	36.4	92.6	233.3	18.2	29.59	41.6	910.0	12.97	-40.0	0	90.1	41.6	45.4	0	0	0	0	0	50.1	35.4	64.4
2017 03/21 16:00	37.3	92.4	212.2	12.5	29.60	41.9	922.0	12.97	-39.9	0	90.1	41.6	47.0	0	0	0	0	0	50.6	35.7	64.4
2017 03/21 16:15	37.9	87.6	259.1	12.5	29.60	42.1	892.0	12.97	-40.1	0	89.8	42.5	47.6	0	0	0	0	0	51.3	35.8	64.4
2017 03/21 16:30	38.3	83.6	222.9	13.3	29.61	42.3	912.0	12.98	-39.9	0	90.0	42.5	49.5	0	0	0	0	0	51.7	35.9	64.4
2017 03/21 16:45	38.3	80.7	235.7	19.5	29.60	42.5	906.0	12.96	-40.0	0	90.0	42.5	49.3	0	0	0	0	0	52.3	36.1	64.4
2017 03/21 17:00	39.3	79.3	170.5	7.2	29.61	42.8	913.0	13.00	-40.0	0	89.8	43.4	48.3	0	0	0	0	0	52.9	36.2	64.4
2017 03/21 17:15	39.2	75.7	226.5	10.2	29.61	43.1	881.0	12.97	-40.1	0	90.0	41.6	47.2	0	0	0	0	0	53.3	36.3	64.4
2017 03/21 17:30	39.9	75.3	185.5	6.0	29.61	43.3	881.0	12.98	-40.0	0	89.7	42.5	46.1	0	0	0	0	0	53.5	36.3	64.4
2017 03/21 17:45	40.4	73.4	220.5	5.6	29.61	43.6	899.0	12.98	-39.9	0	89.6	42.5	45.0	0	0	0	0	0	53.7	36.5	64.4
2017 03/21 18:00	38.9	84.2	91.5	7.2	29.62	44.0	826.0	13.00	-40.1	0	89.9	38.9	43.2	0	0	0	0	0	53.7	36.5	64.4
2017 03/21 18:15	36.5	91.8	95.7	10.2	29.61	44.2	871.0	12.99	-40.0	0	90.0	36.2	42.0	0	0	0	0	0	53.2	36.5	64.4
2017 03/21 18:30	37.1	88.6	135.9	10.5	29.62	44.4	738.0	12.98	-40.0	0	90.0	35.3	40.4	0	0	0	0	0	52.8	36.5	64.4
2017 03/21 18:45	37.2	87.9	83.0	4.0	29.62	44.7	671.9	13.00	-40.0	0	90.1	34.4	39.6	0	0	0	0	0	52.4	36.5	64.4
2017 03/21 19:00	35.7	94.7	98.6	5.9	29.63	44.9	497.5	13.00	-40.0	0	90.2	33.5	39.1	0	0	0	0	0	51.9	36.5	64.4
2017 03/21 19:15	38.2	76.4	146.0	5.2	29.63	45.1	315.9	12.98	-40.0	0	90.1	33.5	39.0	0	0	0	0	0	51.4	36.5	64.4
2017 03/21 19:30	37.1	82.3	97.1	4.5	29.63	45.3	117.7	13.02	-40.0	0	90.0	32.6	38.2	0	0	0	0	0	50.7	36.3	64.4
2017 03/21 19:45	36.7	80.8	107.6	2.1	29.63	45.5	4.8	13.00	-39.8	0	90.2	32.6	37.3	0	0	0	0	0	50.2	36.3	64.4
2017 03/21 20:00	36.5	83.4	61.0	4.5	29.63	45.6	0.0	12.97	-40.2	0	90.2	33.5	36.9	0	0	0	0	0	49.4	36.3	64.4
2017 03/21 20:15	36.2	83.4	223.3	9.7	29.64	45.8	0.0	13.00	-39.9	0	90.1	34.4	38.0	0	0	0	0	0	48.9	36.3	64.4
2017 03/21 20:30	32.8	97.8	250.9	17.4	29.65	45.9	0.0	13.00	-40.0	0	89.9	32.6	39.0	0	0	0	0	0	48.7	36.3	64.4
2017 03/21 20:45	31.9	102.3	182.1	11.1	29.66	45.9	0.0	12.99	-40.1	0	90.2	30.8	37.1	0	1	0	0	0	48.3	36.3	64.4
2017 03/21 21:00	31.6	102.5	206.4	18.1	29.67	45.9	0.0	12.99	-40.0	0	90.0	29.0	36.4	0	1	0	0	0	47.7	36.3	64.5
2017 03/21 21:15	31.2	102.9	224.1	16.4	29.67	45.9	-0.3	12.99	-40.0	0	90.2	29.0	35.1	0	0	0	0	0	47.1	36.3	64.5
2017 03/21 21:30	30.5	103.0	223.4	18.5	29.68	45.9	0.0	12.98	-40.0	0	89.3	29.0	34.6	0	0	0	0	0	46.8	36.2	64.5
2017 03/21 21:45	30.5	103.1	242.0	2.5	29.67	46.0	0.0	13.00	-40.0	0	89.7	29.0	34.2	0	0	0	0	0	46.4	36.2	64.5
2017 03/21 22:00	30.9	103.2	217.6	7.7	29.65	45.9	0.0	13.01	-40.0	0	89.3	28.1	34.3	0	0	0	0	0	45.9	36.2	64.4
2017 03/21 22:15	30.7	103.1	137.3	8.9	29.66	45.9	0.0	13.00	-40.1	0	89.3	28.1	34.5	0	0	0	0	0	45.6	36.1	64.4
2017 03/21 22:30	30.7	103.2	227.7	21.3	29.66	45.9	0.0	13.00	-40.0	0	89.1	29.0	34.2	0	0	0	0	0	45.1	36.1	64.4
2017 03/21 22:45	31.0	103.2	201.8	21.1	29.66	45.9	0.0	12.99	-40.4	0	89.2	29.0	35.3	0	0	0	0	0	44.9	36.0	64.4
2017 03/21 23:00	31.1	103.2	239.2	7.7	29.66	45.8	-0.3	13.00	-40.0	0	89.1	29.0	35.8	0	0	0	0	0	44.5	36.0	64.5
2017 03/21 23:15	31.0	103.2	275.5	8.8	29.65	45.7	0.0	13.00	-40.0	0	89.1	29.0	35.2	0	0	0	0	0	44.2	36.0	64.5
2017 03/21 23:30	31.1	103.2	348.3	10.4	29.65	45.7	0.0	12.98	-40.0	0	89.1	29.9	34.6	0	0	0	0	0	44.3	36.0	64.5
2017 03/21 23:45	31.0	103.2	197.6	10.7	29.65	45.5	0.0	12.98	-39.8	0	89.1	29.9	35.2	0	0	0	0	0	43.9	35.9	64.5
2017 03/22 00:00	31.3	103.2	355.8	12.7	29.65	45.5	0.0	12.97	-40.0	0	89.1	29.9	35.9	0	0	0	0	0	43.8	35.9	64.5
2017 03/22 00:15	31.5	103.3	254.0	9.2	29.65	45.4	0.0	13.00	-40.0	0	89.3	29.9	35.1	0	0	0	0	0	43.4	35.8	64.5
2017 03/22 00:30	31.3	103.2	347.7	12.2	29.64	45.3	0.0	13.00	-39.9	0	89.3	29.9	34.5	0	0	0	0	0	43.4	35.8	64.5
2017 03/22 00:45	31.3	103.3	352.1	12.6	29.64	45.2	0.0	13.01	-39.9	0	89.2	29.9	36.0	0	0	0	0	0	42.9	35.8	64.5
2017 03/22 01:00	31.3	103.4	201.1	8.9	29.65	45.1	0.0	12.98	-40.0	0	89.1	29.9	35.5	0	0	0	0	0	42.6	35.8	64.5
2017 03/22 01:15	31.6	103.2	269.3	9.2	29.65	45.0	0.0	13.01	-40.0	0	89.1	29.9	34.2	0	0	0	0	0	42.4	35.7	64.5
2017 03/22 01:30	31.2	103.3	194.1	12.1	29.65	44.9	0.0	12.99	-39.8	0	89.3	29.9	34.1	0	0	0	0	0	42.2	35.7	64.5
2017 03/22 01:45	31.3	103.3	243.8	13.9	29.65	44.8	0.0	12.99	-39.9	0	89.3	29.0	34.1	0	0	0	0	0	42.1	35.7	64.5
2017 03/22 02:00	31.0	103.3	222.4	18.4	29.66	44.7	0.0	12.99	-40.0	0	89.3	29.0	34.9	0	0	0	0	0	41.9	35.5	64.5
2017 03/22 02:15	30.4	103.3	213.3	17.9	29.66	44.6	0.0	13.01	-39.9	0	90.4	28.1	34.5	0	0	0	0	0	41.6	35.5	64.5
2017 03/22 02:30	30.2	103.4	185.4	21.1	29.64	44.5	0.0	13.00	-39.9	0	90.6	28.1	34.2	0	0	0	0	0	41.6	35.5	64.5
2017 03/22 02:45	30.6	103.4	210.0	19.8	29.64	44.4	0.0	12.99	-39.9	0	90.5	29.0	34.6	0	0	0	0	0	41.5	35.5	64.5
2017 03/22 03:00	30.7	103.4	241.5	19.4	29.64	44.2	0.0	12.98	-39.9	0	90.6	29.0	34.6	0	0	0	0	0	41.3	35.5	64.6
2017 03/22 03:15	30.6	103.3	222.5	19.1	29.63	44.1	0.0	12.96	-40.0	0	90.9	29.0	34.9	0	1	0	0	0	41.1	35.5	64.6
2017 03/22 03:30	30.7	103.4	217.4	20.4	29.63	44.0	-0.3	12.99	-39.9	0	91.0	29.0	34.8	0	0	0	0	0	41.0	35.4	64.6
2017 03/22 03:45	30.7	103.4	215.3	16.7	29.64	43.9	0.0	13.00	-40.0	0	91.2	29.0	34.9	0	1	0	0	0	40.7	35.5	64.6
2017 03/22 04:00	30.7	103.4	217.5	18.4	29.64	43.8	0.0	12.99	-40.0	0	90.7	29.0	34.8	0	0	0	0	0	40.7	35.4	64.6
2017 03/22 04:15	30.1	103.4	246.6	9.5	29.64	43.6	0.0	13.00	-39.9	0	90.1	28.1	34.2	0	0	0	0	0	40.5	35.4	64.6
2017 03/22 04:30	29.9	103.4	212.8	14.1	29.64	43.5	0.0	12.99	-40.0	0	90.0	28.1	34.0	0	0	0	0	0	40.5	35.4	64.6
2017 03/22 04:45	29.9	103.3	250.2	16.0	29.64	43.4	0.0	13.00	-40.0	0	90.7	28.1	34.0	0	0	0	0	0	40.4	35.4	64.6
2017 03/22 05:00	29.8	103.4	202.9	22.9	29.64	43.3	-0.3	12.98	-40.0	0	90.6	28.1	34.1	0	0	0	0	0	40.2	35.3	64.6
2017 03/22 05:15	29.8	103.2	221.4	24.2	29.64	43.1	0.0	12.99	-40.1	0	91.0	28.1	34.5	0	0	0	0	0	40.0	35.3	64.6
2017 03/22 05:30	30.1	103.3	193.5	25.9	29.64	43.0	-0.3	12.98	-39.9	0	91.3	28.1	34.8	0	0	0	0	0	39.9	35.3	64.6
2017 03/22 05:45	30.0	103.4	224.2	26.7	29.63	42.9	0.0	13.00	-39.9	0	91.2	28.1	34.8	0	0	0	0	0	40.0	35.3	64.6
2017 03/22 06:00	29.9	103.3	139.2	10.9	29.64	42.8	0.0	12.99	-40.0	0	91.3	28.1	34.6	0	0	0	0	0	39.9	35.3	64.6
2017 03/22 06:15	29.8	103.2	215.5	20.2	29.64	42.6	0.0	12.98	-40.0	0	91.2	28.1	34.8	0	0	0	0	0	39.7	35.2	64.6
2017 03/22 06:30	30.0	103.2	219.3	30.4	29.64	42.5	0.7	12.97	-39.9	0	91.2	28.1	34.9	0	0	0	0	0	39.7	35.3	64.6
2017 03/22 06:45	30.0	103.2	206.4	27.3	29.64	42.4	20.4	12.98	-40.1	0	91.2	28.1	34.8	0	0	0	0	0	39.6	35.2	64.6
2017 03/22 07:00	30.0	103.2	225.4	28.0	29.64	42.3	185.0	12.99	-40.0	0	91.2	28.1	34.9	0	0	0	0	0	39.5	35.2	64.6
2017 03/22 07:15	30.1	103.3	207.5	14.1	29.65	42.2	394.7	13.00	-40.0	0	90.6	28.1	35.1	0	0	0	0	0	39.5	35.2	64.6
2017 03/22 07:30	29.9	103.2	239.3	15.7	29.65	42.1	540.0	13.00	-40.0	0	90.4	28.1	35.1	0	0	0	0	0	39.4	35.2	64.6
2017 03/22 07:45	29.9	103.2	190.1	22.1	29.65	42.0	662.1	13.00	-40.0	0	90.4	28.1	35.2	0	0	0	0	0	39.4	35.2	64.6
2017 03/22 08:00	29.9	103.1	265.9	26.0	29.65	41.9	726.0	12.99	-40.0	0	91.3	28.1	34.9	0	0	0	0	0	39.3	35.1	64.7
2017 03/22 08:15	29.0	103.1	253.0	27.3	29.66	41.8	745.0	12.98	-40.0	0	91.1	28.1	34.5	0	0	0	0	0	39.3	35.1	64.7
2017 03/22 08:30	28.5	103.0	247.5	23.2	29.67	41.7	863.0	13.00	-39.9	0	91.1	28.1	34.6	0	0	0	0	0	39.2	35.2	64.7
2017 03/22 08:45	28.5	102.8	249.7	24.8	29.67	41.5	825.0	12.97	-40.1	0	90.9	28.1	34.6	0	0	0	0	0	39.2	35.1	64.7
2017 03/22 09:00	28.7	102.8	247.2	20.0	29.68	41.4	822.0	12.99	-39.9	0	90.8	28.1	34.8	0	0	0	0	0	39.2	35.1	64.7
2017 03/22 09:15	28.9	102.7	245.2	28.2	29.67	41.3	821.0	13.00	-39.9	0	90.8	27.2	34.5	0	1	0	0	0	39.2	35.1	64.7
2017 03/22 09:30	28.1	102.5	235.4	28.1	29.68	41.1	838.0	12.98	-40.0	0	90.8	27.2	34.5	0	0	0	0	0	39.2	35.1	64.7
2017 03/22 09:45	27.9	102.5	226.4	28.4	29.68	41.1	854.0	12.98	-39.9	0	91.3	27.2	34.8	0	0	0	0	0	39.2	35.0	64.7
2017 03/22 10:00	27.9	102.5	255.0	34.4	29.68	40.9	879.0	12.98	-39.9	0	91.1	27.2	34.6	0	0	0	0	0	39.3	35.0	64.7
2017 03/22 10:15	28.2	102.4	233.4	34.5	29.68	40.8	915.0	12.97	-40.4	0	91.3	28.1	36.3	0	0	0	0	0	39.2	35.0	64.7
2017 03/22 10:30	28.2	102.5	252.1	38.0	29.69	40.7	898.0	13.00	-40.0	0	91.1	28.1	36.1	0	0	0	0	0	39.2	35.0	64.7
2017 03/22 10:45	27.7	102.2	223.7	38.1	29.69	40.6	884.0	12.97	-39.9	0	91.1	28.1	35.3	0	0	0	0	0	39.2	35.0	64.7
2017 03/22 11:00	27.6	102.0	245.4	38.9	29.69	40.5	876.0	12.99	-40.0	0	91.2	28.1	35.2	0	0	0	0	0	39.3	35.0	64.6
2017 03/22 11:15	27.6	102.2	262.9	33.8	29.70	40.5	930.0	12.96	-40.0	0	91.4	29.0	36.0	0	0	0	0	0	39.3	35.0	64.6
2017 03/22 11:30	27.8	102.0	245.3	35.9	29.69	40.3	920.0	12.99	-40.1	0	91.2	29.9	37.3	0	0	0	0	0	39.9	34.9	64.6
2017 03/22 11:45	28.7	102.4	230.3	35.5	29.70	40.3	918.0	13.00	-39.9	0	91.5	29.9	38.5	0	0	0	0	0	40.4	34.9	64.6
2017 03/22 12:00	29.8	102.8	220.2	38.1	29.70	40.2	919.0	12.99	-40.0	0	91.4	29.9	38.7	0	0	0	0	0	41.4	35.0	64.9
2017 03/22 12:15	28.8	102.6	241.9	37.3	29.70	40.2	915.0	12.98	-39.8	0	91.4	29.9	37.6	0	2	0	0	0	41.7	35.0	64.9
2017 03/22 12:30	29.1	102.9	231.8	33.1	29.71	40.1	904.0	12.99	-40.1	0	91.4	29.9	36.8	0	1	0	0	0	42.1	35.1	64.9
2017 03/22 12:45	28.9	102.5	248.9	24.5	29.72	40.1	939.0	12.98	-40.0	0	91.4	29.9	36.8	0	0	0	0	0	42.1	35.1	64.9
2017 03/22 13:00	29.4	102.5	265.5	27.1	29.72	40.1	920.0	12.98	-40.0	0	91.4	29.9	38.1	0	0	0	0	0	42.3	35.1	64.8
2017 03/22 13:15	29.0	102.4	246.5	22.8	29.73	40.1	916.0	12.96	-40.0	0	91.3	29.9	37.6	0	2	0	0	0	42.4	35.2	64.8
2017 03/22 13:30	29.0	102.4	261.9	37.3	29.73	40.2	910.0	12.99	-40.0	0	91.3	29.9	37.8	0	4	0	0	0	42.9	35.2	64.8
2017 03/22 13:45	29.0	102.4	240.1	19.8	29.74	40.3	926.0	12.99	-39.9	0	91.3	31.7	37.7	0	0	0	0	0	43.3	35.2	64.8
2017 03/22 14:00	29.0	102.3	236.0	28.1	29.74	40.3	908.0	12.97	-40.1	0	91.4	29.9	37.7	0	0	0	0	0	44.0	35.2	64.8
2017 03/22 14:15	29.4	102.5	269.2	28.0	29.74	40.5	939.0	12.97	-39.9	0	90.9	32.6	39.9	0	0	0	0	0	44.4	35.2	64.8
2017 03/22 14:30	29.9	102.7	241.5	33.8	29.73	40.5	912.0	12.99	-40.0	0	91.3	30.8	39.0	0	0	0	0	0	45.0	35.3	64.8
2017 03/22 14:45	30.0	102.8	240.6	30.8	29.74	40.7	916.0	13.00	-40.0	0	91.5	29.0	38.0	0	0	0	0	0	45.2	35.3	64.8
2017 03/22 15:00	30.1	103.0	229.4	27.1	29.75	40.7	897.0	12.99	-40.0	0	91.4	29.0	36.9	0	1	0	0	0	45.1	35.4	64.8
2017 03/22 15:15	29.4	103.0	255.7	24.2	29.76	40.9	912.0	12.97	-39.9	0	91.2	29.0	37.8	0	1	0	0	0	44.9	35.4	64.8
2017 03/22 15:30	29.3	103.1	261.5	22.7	29.76	40.9	944.0	12.99	-40.0	0	91.3	29.0	37.6	0	0	0	0	0	44.7	35.4	64.8
2017 03/22 15:45	29.8	103.0	235.4	16.9	29.77	41.0	912.0	12.99	-40.0	0	90.9	29.9	37.6	0	0	0	0	0	44.5	35.4	64.8
2017 03/22 16:00	29.4	103.1	252.1	23.3	29.77	41.1	904.0	12.99	-40.0	0	91.1	29.0	36.4	0	0	0	0	0	44.7	35.4	64.8
2017 03/22 16:15	29.4	103.0	286.7	16.7	29.77	41.2	916.0	12.97	-40.0	0	91.1	29.0	38.2	0	0	0	0	0	44.4	35.4	64.8
2017 03/22 16:30	29.1	103.0	272.9	24.0	29.77	41.4	902.0	13.00	-39.9	0	91.1	29.0	37.6	0	0	0	0	0	44.4	35.4	64.8
2017 03/22 16:45	29.1	103.2	233.8	22.4	29.78	41.5	880.0	12.98	-40.0	0	91.2	29.0	37.3	0	0	0	0	0	44.7	35.5	64.8
2017 03/22 17:00	28.7	103.0	250.5	24.7	29.79	41.6	910.0	13.00	-40.1	0	91.2	29.0	36.0	0	0	0	0	0	44.7	35.5	64.6
2017 03/22 17:15	28.7	103.0	275.5	19.5	29.79	41.7	827.0	12.98	-40.1	0	91.4	28.1	34.6	0	0	0	0	0	44.3	35.5	64.6
2017 03/22 17:30	28.4	103.0	353.6	14.9	29.80	41.8	878.0	13.00	-40.0	0	91.1	28.1	34.9	0	0	0	0	0	43.8	35.5	64.6
2017 03/22 17:45	28.2	102.8	224.8	10.4	29.80	41.8	899.0	13.00	-40.0	0	91.8	27.2	34.3	0	0	0	0	0	43.4	35.4	64.6
2017 03/22 18:00	28.3	102.7	276.3	16.5	29.79	41.9	882.0	12.96	-40.0	0	91.5	28.1	35.3	0	0	0	0	0	43.2	35.4	64.7
2017 03/22 18:15	27.4	102.6	239.8	27.3	29.79	41.9	792.0	12.96	-39.6	0	91.5	28.1	34.3	0	0	0	0	0	42.7	35.4	64.7
2017 03/22 18:30	27.3	102.4	242.5	24.7	29.80	41.9	783.0	12.98	-39.9	0	91.5	27.2	34.1	0	0	0	0	0	42.5	35.3	64.7
2017 03/22 18:45	27.4	102.3	258.1	17.8	29.82	41.9	661.4	12.97	-40.1	0	91.8	27.2	33.6	0	0	0	0	0	42.3	35.3	64.7
2017 03/22 19:00	27.2	102.4	263.9	18.5	29.82	41.9	590.9	12.97	-39.8	0	91.9	26.3	33.2	0	0	0	0	0	42.2	35.3	64.8
2017 03/22 19:15	27.1	102.2	156.8	14.4	29.82	41.9	448.7	12.98	-39.9	0	91.8	26.3	32.6	0	0	0	0	0	41.9	35.3	64.8
2017 03/22 19:30	26.9	102.0	202.8	16.9	29.82	41.8	205.0	12.96	-39.9	0	91.9	25.4	32.4	0	0	0	0	0	41.5	35.2	64.8
2017 03/22 19:45	26.8	102.0	235.4	17.6	29.82	41.8	22.7	12.97	-39.9	0	91.9	25.4	32.7	0	0	0	0	0	41.5	35.2	64.8
2017 03/22 20:00	26.5	101.9	261.7	13.1	29.83	41.7	0.7	12.98	-39.9	0	91.9	25.4	32.7	0	0	0	0	0	41.3	35.1	64.8
2017 03/22 20:15	26.1	101.9	277.0	18.1	29.83	41.6	0.0	12.99	-40.0	0	91.9	25.4	32.6	0	0	0	0	0	41.2	35.1	64.8
2017 03/22 20:30	26.6	101.7	269.7	17.4	29.83	41.5	0.0	12.98	-39.9	0	91.8	25.4	32.7	0	0	0	0	0	40.8	35.1	64.8
2017 03/22 20:45	26.2	101.7	246.7	15.8	29.83	41.4	0.0	12.99	-40.1	0	91.9	24.5	32.3	0	0	0	0	0	40.7	35.0	64.8
2017 03/22 21:00	25.7	101.6	345.7	15.4	29.84	41.3	0.0	12.98	-39.9	0	91.7	24.5	32.0	0	0	0	0	0	40.6	35.0	64.8
2017 03/22 21:15	25.6	101.6	220.3	13.9	29.84	41.1	-0.3	13.00	-40.0	0	91.8	24.5	31.5	0	0	0	0	0	40.4	35.0	64.8
2017 03/22 21:30	25.4	101.5	126.5	15.2	29.84	41.0	0.0	13.00	-40.1	0	91.7	24.5	31.8	0	0	0	0	0	40.0	34.9	64.8
2017 03/22 21:45	25.2	101.5	249.5	16.6	29.84	40.9	0.0	13.00	-40.0	0	91.7	24.5	31.7	0	0	0	0	0	39.9	34.9	64.8
2017 03/22 22:00	25.1	101.3	245.5	18.7	29.84	40.7	0.0	12.99	-40.0	0	91.7	24.5	31.6	0	0	0	0	0	39.7	34.9	64.8
2017 03/22 22:15	25.0	101.2	237.0	20.1	29.84	40.6	0.0	12.99	-39.9	0	91.7	23.6	31.3	0	0	0	0	0	39.6	34.8	64.8
2017 03/22 22:30	24.8	101.1	251.8	23.6	29.84	40.5	0.0	12.99	-39.9	0	91.7	23.6	31.2	0	0	0	0	0	39.5	34.8	64.8
2017 03/22 22:45	24.6	101.1	278.7	18.0	29.83	40.3	0.0	13.01	-39.9	0	91.7	23.6	30.9	0	0	0	0	0	39.3	34.7	64.8
2017 03/22 23:00	24.1	101.1	268.2	16.7	29.84	40.1	4.8	13.00	-40.1	0	91.7	22.7	30.3	0	0	0	0	0	38.9	34.7	64.8
2017 03/22 23:15	24.0	100.9	280.8	9.7	29.84	40.0	0.0	13.01	-40.1	0	91.7	22.7	30.2	0	0	0	0	0	38.9	34.5	64.8
2017 03/22 23:30	24.3	100.9	276.4	14.5	29.84	39.8	0.0	12.99	-39.6	0	91.7	23.6	30.3	0	0	0	0	0	38.7	34.5	64.8
2017 03/22 23:45	24.6	101.0	317.7	12.4	29.85	39.6	0.0	12.99	-40.0	0	91.7	23.6	30.2	0	0	0	0	0	38.7	34.5	64.8
2017 03/23 00:00	24.4	101.0	270.2	14.2	29.84	39.4	0.0	12.99	-40.0	0	91.7	23.6	30.0	0	0	0	0	0	38.4	34.4	64.7
2017 03/23 00:15	24.6	101.1	252.2	11.9	29.85	39.3	0.0	12.99	-39.8	0	91.9	23.6	29.7	0	0	0	0	0	38.1	34.4	64.7
2017 03/23 00:30	24.6	100.9	269.9	11.8	29.84	39.2	0.7	12.99	-40.0	0	91.8	23.6	30.0	0	0	0	0	0	38.2	34.3	64.7
2017 03/23 00:45	24.4	100.9	250.7	17.3	29.84	39.0	0.0	13.00	-39.9	0	91.9	23.6	29.9	0	0	0	0	0	38.0	34.3	64.7
2017 03/23 01:00	23.9	100.7	240.8	13.3	29.84	38.8	19.0	12.98	-39.9	0	92.0	22.7	29.8	0	0	0	0	0	38.1	34.2	64.7
2017 03/23 01:15	24.0	100.7	236.0	19.9	29.83	38.6	19.0	12.98	-39.9	0	91.9	22.7	29.8	0	0	0	0	0	37.9	34.2	64.7
2017 03/23 01:30	23.8	100.7	239.0	21.2	29.83	38.5	19.3	13.01	-39.9	0	91.9	22.7	29.8	0	0	0	0	0	37.8	34.2	64.7
2017 03/23 01:45	23.9	100.8	218.6	20.2	29.82	38.3	19.0	12.99	-39.9	0	91.9	22.7	29.9	0	0	0	0	0	37.8	34.1	64.7
2017 03/23 02:00	23.8	100.7	241.0	19.8	29.82	38.1	4.8	12.99	-40.0	0	91.9	22.7	29.8	0	0	0	0	0	37.7	34.1	64.7
2017 03/23 02:15	23.9	100.8	251.1	20.4	29.83	37.9	4.8	12.97	-40.1	0	92.1	22.7	29.9	0	0	0	0	0	37.5	34.0	64.7
2017 03/23 02:30	23.9	100.7	242.8	23.2	29.82	37.8	4.4	12.99	-39.9	0	92.1	22.7	29.8	0	0	0	0	0	37.4	34.0	64.7
2017 03/23 02:45	23.8	100.7	233.3	21.1	29.82	37.7	4.8	13.00	-39.6	0	92.2	22.7	29.9	0	0	0	0	0	37.2	34.0	64.7
2017 03/23 03:00	23.9	100.7	222.0	24.7	29.82	37.5	4.4	12.98	-40.0	0	92.1	22.7	29.8	0	0	0	0	0	37.4	33.9	64.8
2017 03/23 03:15	24.0	100.7	223.2	20.5	29.83	37.3	8.5	13.00	-40.1	0	92.1	22.7	29.5	0	0	0	0	0	37.2	33.7	64.8
2017 03/23 03:30	23.9	100.7	237.8	20.6	29.82	37.2	3.7	12.97	-40.0	0	92.1	22.7	29.6	0	0	0	0	0	37.2	33.7	64.8
2017 03/23 03:45	23.8	100.7	244.1	14.6	29.82	37.1	3.7	12.98	-40.1	0	91.9	22.7	29.7	0	0	0	0	0	37.0	33.7	64.8
2017 03/23 04:00	23.7	100.7	232.7	13.2	29.80	36.9	13.9	13.00	-39.9	0	91.9	22.7	29.7	0	0	0	0	0	37.1	33.7	64.7
2017 03/23 04:15	23.4	100.6	180.5	12.1	29.80	36.8	4.8	13.01	-40.0	0	91.8	22.7	29.4	0	0	0	0	0	37.0	33.6	64.7
2017 03/23 04:30	23.4	100.6	207.2	17.5	29.79	36.6	0.0	12.98	-40.0	0	91.8	22.7	29.3	0	0	0	0	0	36.9	33.6	64.7
2017 03/23 04:45	23.2	100.5	203.2	8.3	29.80	36.5	0.0	12.99	-40.1	0	91.8	21.8	29.0	0	0	0	0	0	36.7	33.6	64.7
2017 03/23 05:00	23.5	100.5	249.1	14.0	29.79	36.4	0.0	12.99	-39.9	0	91.8	21.8	28.8	0	0	0	0	0	36.8	33.5	64.8
2017 03/23 05:15	23.2	100.5	216.1	19.1	29.79	36.4	0.0	12.98	-40.1	0	91.7	21.8	28.6	0	0	0	0	0	36.8	33.5	64.8
2017 03/23 05:30	23.0	100.3	235.5	14.1	29.79	36.2	0.0	13.00	-40.0	0	91.7	21.8	28.8	0	0	0	0	0	36.7	33.4	64.8
2017 03/23 05:45	22.8	100.3	230.7	14.2	29.79	36.2	-0.3	12.97	-40.0	0	91.7	21.8	28.9	0	0	0	0	0	36.7	33.4	64.8
2017 03/23 06:00	22.9	100.2	229.6	14.9	29.79	36.0	0.0	13.01	-40.1	0	91.7	21.8	29.0	0	0	0	0	0	36.7	33.4	64.7
2017 03/23 06:15	22.8	100.2	222.9	18.2	29.79	36.0	0.0	13.01	-40.1	0	91.7	21.8	28.4	0	0	0	0	0	36.7	33.3	64.7
2017 03/23 06:30	22.8	100.1	221.2	18.4	29.80	35.8	2.0	12.98	-39.9	0	91.7	21.8	28.6	0	0	0	0	0	36.6	33.3	64.7
2017 03/23 06:45	22.6	100.2	232.9	14.4	29.79	35.8	40.7	13.01	-40.1	0	91.7	21.8	28.6	0	0	0	0	0	36.5	33.3	64.7
2017 03/23 07:00	22.8	100.2	202.5	18.4	29.79	35.7	278.6	12.99	-40.1	0	91.6	21.8	28.9	0	0	0	0	0	36.6	33.2	64.7
2017 03/23 07:15	22.7	100.3	223.1	19.3	29.78	35.6	537.9	12.98	-39.9	0	91.6	21.8	29.0	0	0	0	0	0	36.1	33.2	64.7
2017 03/23 07:30	22.9	100.3	219.0	19.4	29.78	35.5	716.0	12.99	-39.9	0	91.3	21.8	28.9	0	0	0	0	0	36.0	33.2	64.7
2017 03/23 07:45	23.1	100.7	226.3	13.4	29.78	35.4	811.0	12.99	-40.1	0	91.0	21.8	29.0	0	0	0	0	0	36.0	33.1	64.7
2017 03/23 08:00	24.0	101.3	169.2	14.0	29.78	35.3	838.0	13.01	-40.0	0	90.8	22.7	29.6	0	0	0	0	0	36.0	33.1	64.8
2017 03/23 08:15	24.8	101.8	217.9	21.1	29.79	35.3	862.0	13.00	-40.2	0	90.8	22.7	29.9	0	0	0	0	0	35.8	33.0	64.8
2017 03/23 08:30	25.1	101.9	213.8	21.1	29.79	35.1	880.0	13.00	-40.0	0	90.6	23.6	29.9	0	0	0	0	0	35.7	33.0	64.8
2017 03/23 08:45	25.1	101.5	218.6	13.3	29.78	35.1	855.0	12.99	-39.9	0	91.3	23.6	30.4	0	0	0	0	0	35.5	33.0	64.8
2017 03/23 09:00	24.4	101.3	303.1	14.1	29.79	35.1	869.0	13.01	-39.9	0	91.2	23.6	32.0	0	0	0	0	0	35.7	33.0	64.8
2017 03/23 09:15	24.1	101.2	187.9	14.5	29.79	35.2	882.0	13.01	-40.1	0	91.5	23.6	33.1	0	0	0	0	0	35.7	32.9	64.8
2017 03/23 09:30	24.6	101.4	234.4	12.5	29.79	35.1	891.0	13.00	-40.0	0	91.1	24.5	33.6	0	0	0	0	0	35.5	33.0	64.8
2017 03/23 09:45	24.9	101.4	135.0	12.2	29.78	35.3	909.0	13.00	-40.1	0	91.5	25.4	33.9	0	0	0	0	0	36.1	33.0	64.8
2017 03/23 10:00	25.0	101.3	205.4	10.6	29.79	35.4	904.0	12.99	-40.1	0	91.2	26.3	35.3	0	0	0	0	0	36.7	32.9	64.9
2017 03/23 10:15	24.9	101.3	219.9	10.1	29.79	35.5	893.0	13.01	-40.0	0	91.6	26.3	35.4	0	0	0	0	0	37.0	32.9	64.9
2017 03/23 10:30	24.6	101.2	214.9	7.4	29.79	35.7	905.0	13.00	-40.0	0	91.6	27.2	35.2	0	0	0	0	0	37.4	33.0	64.9
2017 03/23 10:45	25.0	101.1	234.7	7.5	29.80	36.0	901.0	13.01	-40.0	0	91.1	28.1	36.4	0	0	0	0	0	37.9	33.0	64.9
2017 03/23 11:00	25.1	101.5	219.6	6.9	29.81	36.4	925.0	13.01	-40.1	0	90.7	32.6	36.8	0	1	0	0	0	38.5	33.0	64.9
2017 03/23 11:15	27.1	102.2	247.1	8.8	29.81	36.9	923.0	13.00	-40.0	0	91.2	34.4	37.1	0	0	0	0	0	39.6	33.0	64.9
2017 03/23 11:30	27.6	102.2	252.9	9.3	29.81	37.5	927.0	12.99	-40.0	0	91.5	31.7	37.5	0	0	0	0	0	40.7	33.1	64.9
2017 03/23 11:45	27.4	102.0	190.8	9.3	29.82	38.1	927.0	12.99	-40.0	0	91.7	30.8	37.7	0	0	0	0	0	42.0	33.1	64.9
2017 03/23 12:00	27.8	102.4	280.2	6.1	29.82	38.8	924.0	13.01	-39.9	0	91.8	31.7	38.7	0	2	0	0	0	43.3	33.2	65.0
2017 03/23 12:15	29.0	102.6	220.8	9.2	29.83	39.5	928.0	12.99	-40.0	0	91.9	32.6	39.5	0	1	0	0	0	44.4	33.3	65.0
2017 03/23 12:30	30.5	102.8	202.1	9.1	29.84	40.3	930.0	13.01	-39.9	0	91.7	35.3	40.5	0	1	0	0	0	45.3	33.4	65.0
2017 03/23 12:45	31.2	102.8	122.1	6.8	29.84	41.0	927.0	12.97	-39.9	0	91.8	35.3	41.1	0	0	0	0	0	46.6	33.5	65.0
2017 03/23 13:00	30.5	102.7	319.7	6.8	29.84	41.6	915.0	12.97	-40.0	0	91.2	38.0	41.7	0	0	0	0	0	47.8	33.6	65.0
2017 03/23 13:15	30.9	103.1	209.3	5.3	29.84	42.0	926.0	12.98	-40.1	0	91.7	38.9	42.3	0	0	0	0	0	48.8	33.9	65.0
2017 03/23 13:30	31.6	103.0	194.7	7.5	29.85	42.3	924.0	12.99	-40.0	0	91.4	38.9	42.6	0	0	0	0	0	49.3	34.1	65.0
2017 03/23 13:45	31.6	103.0	206.1	8.1	29.85	42.5	916.0	13.01	-40.0	0	91.5	37.1	42.9	0	0	0	0	0	49.7	34.3	65.0
2017 03/23 14:00	31.5	103.0	162.7	6.7	29.85	42.8	926.0	13.00	-39.9	0	91.2	39.8	43.2	0	0	0	0	0	50.1	34.4	65.0
2017 03/23 14:15	31.8	103.0	212.1	7.3	29.84	43.0	931.0	13.02	-40.1	0	91.0	42.5	44.3	0	0	0	0	0	50.5	34.5	65.0
2017 03/23 14:30	31.6	103.0	304.6	8.6	29.85	43.4	937.0	13.00	-40.0	0	91.3	41.6	45.1	0	0	0	0	0	50.7	34.7	65.0
2017 03/23 14:45	31.7	102.9	223.2	7.9	29.85	43.8	928.0	13.01	-40.1	0	90.9	44.3	46.1	0	0	0	0	0	51.3	34.8	65.0
2017 03/23 15:00	31.8	103.0	216.0	19.9	29.85	44.2	913.0	13.00	-40.0	0	91.4	39.8	46.2	0	0	0	0	0	52.0	35.0	64.9
2017 03/23 15:15	30.5	102.8	228.2	16.0	29.85	44.5	930.0	12.99	-40.0	0	91.6	38.0	45.6	0	0	0	0	0	52.3	35.2	64.9
2017 03/23 15:30	29.9	102.8	216.7	19.1	29.85	44.8	926.0	12.98	-39.9	0	91.3	39.8	45.3	0	0	0	0	0	52.7	35.3	64.9
2017 03/23 15:45	29.4	102.7	248.3	18.5	29.85	45.2	887.0	12.98	-39.9	0	91.4	37.1	43.3	0	0	0	0	0	52.9	35.4	64.9
2017 03/23 16:00	29.5	102.5	244.1	15.9	29.86	45.5	909.0	13.02	-39.9	0	91.5	37.1	44.4	0	0	0	0	0	53.2	35.5	64.9
2017 03/23 16:15	29.9	102.1	307.9	7.9	29.85	45.7	925.0	13.01	-40.1	0	91.3	38.9	46.3	0	0	0	0	0	53.5	35.5	64.9
2017 03/23 16:30	31.1	102.1	229.9	4.8	29.85	46.0	912.0	12.99	-40.0	0	91.3	41.6	47.2	0	0	0	0	0	53.8	35.7	64.9
2017 03/23 16:45	31.2	101.6	128.7	4.8	29.85	46.3	920.0	13.02	-40.0	0	91.3	40.7	47.1	0	0	0	0	0	54.1	35.9	64.9
2017 03/23 17:00	30.6	100.8	234.9	9.8	29.85	46.6	890.0	13.00	-40.0	0	91.4	38.0	43.6	0	0	0	0	0	54.1	35.9	64.9
2017 03/23 17:15	31.5	101.0	157.6	4.6	29.84	46.9	899.0	12.99	-40.0	0	91.4	37.1	43.8	0	0	0	0	0	54.2	36.0	64.9
2017 03/23 17:30	31.3	100.7	27.6	4.2	29.85	47.4	871.0	13.01	-39.9	0	91.4	37.1	43.8	0	0	0	0	0	54.0	36.0	64.9
2017 03/23 17:45	31.4	98.7	138.7	8.6	29.85	48.0	808.0	13.00	-40.0	0	91.4	37.1	42.3	0	0	0	0	0	53.7	36.0	64.9
2017 03/23 18:00	31.6	97.8	124.7	5.8	29.86	48.5	782.0	13.00	-40.0	0	91.5	36.2	41.5	0	0	0	0	0	53.1	36.0	64.9
2017 03/23 18:15	31.9	99.5	297.8	0.9	29.86	49.1	723.0	12.99	-40.1	0	91.5	35.3	39.8	0	0	0	0	0	52.8	36.0	64.9
2017 03/23 18:30	32.1	100.7	257.8	0.5	29.87	49.6	647.0	13.00	-40.0	0	91.4	35.3	39.1	0	0	0	0	0	52.7	36.0	64.9
2017 03/23 18:45	31.9	100.2	217.3	3.6	29.87	50.3	563.2	12.99	-40.0	0	91.5	33.5	38.2	0	0	0	0	0	52.1	36.0	64.9
2017 03/23 19:00	31.9	100.1	217.2	3.9	29.88	50.8	408.1	13.02	-40.0	0	91.6	33.5	38.1	0	0	0	0	0	51.4	35.9	64.9
2017 03/23 19:15	31.7	98.0	206.6	10.4	29.89	51.4	224.3	13.01	-40.0	0	91.5	33.5	38.4	0	0	0	0	0	51.1	35.9	64.9
2017 03/23 19:30	31.1	99.6	239.6	9.5	29.89	52.0	69.9	13.00	-39.9	0	91.5	32.6	38.7	0	0	0	0	0	50.5	35.9	64.9
2017 03/23 19:45	30.6	101.4	36.5	6.8	29.90	52.5	7.5	13.00	-40.0	0	91.4	30.8	37.5	0	0	0	0	0	50.0	35.9	64.9
2017 03/23 20:00	30.0	102.5	294.7	7.1	29.90	53.1	0.0	13.01	-40.0	0	91.1	29.9	36.8	0	1	0	0	0	49.3	35.8	65.0
2017 03/23 20:15	30.0	102.9	143.3	5.9	29.90	53.7	0.0	13.02	-40.0	0	91.2	29.0	36.1	0	0	0	0	0	48.5	35.8	65.0
2017 03/23 20:30	30.4	103.1	152.8	7.7	29.90	54.1	0.0	13.02	-40.0	0	91.3	29.0	35.2	0	1	0	0	0	48.2	35.8	65.0
2017 03/23 20:45	30.2	103.1	45.0	5.8	29.91	54.6	0.0	13.02	-40.1	0	90.8	29.0	35.4	0	0	0	0	0	47.6	35.7	65.0
2017 03/23 21:00	30.6	103.0	241.9	6.7	29.90	55.1	0.0	13.00	-40.0	0	90.8	29.0	35.1	0	0	0	0	0	47.0	35.7	64.9
2017 03/23 21:15	30.8	103.1	143.2	7.9	29.91	55.6	0.0	13.01	-40.0	0	91.7	29.0	35.0	0	1	0	0	0	46.6	35.7	64.9
2017 03/23 21:30	31.3	103.3	242.6	8.7	29.90	56.1	0.0	13.01	-40.0	0	91.8	29.9	35.4	0	2	0	0	0	46.1	35.7	64.9
2017 03/23 21:45	31.4	103.3	46.0	8.8	29.90	56.5	0.0	12.99	-40.0	0	92.0	29.9	35.9	0	0	0	0	0	45.8	35.5	64.9
2017 03/23 22:00	31.4	103.3	35.4	8.0	29.90	56.9	0.0	13.02	-40.1	0	92.0	30.8	36.3	0	0	0	0	0	45.5	35.5	65.0
2017 03/23 22:15	31.9	103.3	94.4	7.8	29.90	57.2	0.0	13.02	-39.9	0	91.8	31.7	36.8	0	1	0	0	0	45.2	35.5	65.0
2017 03/23 22:30	31.8	103.2	207.0	8.6	29.90	57.6	0.0	13.00	-40.0	0	92.0	30.8	36.8	0	3	0	0	0	44.9	35.5	65.0
2017 03/23 22:45	31.6	103.3	126.4	11.1	29.90	58.0	0.0	13.00	-39.8	0	91.9	30.8	37.1	0	2	0	0	0	44.7	35.5	65.0
2017 03/23 23:00	32.2	103.3	132.9	12.6	29.90	58.3	0.0	12.99	-40.1	0	92.2	30.8	37.3	0	2	0	0	0	44.5	35.5	65.1
2017 03/23 23:15	31.8	103.3	247.4	15.3	29.89	58.6	0.0	12.99	-40.0	0	92.0	30.8	37.0	0	0	0	0	0	44.4	35.7	65.1
2017 03/23 23:30	31.9	103.3	297.3	14.8	29.90	58.8	0.0	12.99	-39.9	0	91.9	30.8	36.9	0	1	0	0	0	44.2	35.5	65.1
2017 03/23 23:45	32.2	103.3	293.5	17.3	29.90	59.2	0.3	13.02	-40.0	0	91.8	30.8	36.9	0	1	0	0	0	44.0	35.7	65.1
2017 03/24 00:00	31.9	103.4	224.6	18.2	29.89	59.4	0.0	12.99	-40.1	0	91.9	30.8	36.6	0	0	0	0	0	43.8	35.5	65.2
2017 03/24 00:15	31.9	103.5	212.3	20.8	29.89	59.6	0.0	12.99	-40.0	0	91.9	30.8	36.4	0	2	0	0	0	43.5	35.7	65.2
2017 03/24 00:30	31.6	103.6	226.5	19.6	29.90	59.9	5.4	13.02	-39.9	0	91.9	29.9	36.3	0	1	0	0	0	43.4	35.5	65.2
2017 03/24 00:45	31.7	103.6	216.6	17.1	29.90	60.1	7.1	12.98	-40.0	0	91.7	29.9	36.0	0	1	0	0	0	43.2	35.5	65.2
2017 03/24 01:00	31.6	103.5	231.4	19.9	29.90	60.3	4.7	13.01	-40.0	0	91.8	29.9	35.8	0	2	0	0	0	43.1	35.5	65.2
2017 03/24 01:15	31.6	103.7	206.0	17.6	29.90	60.5	0.0	13.00	-40.0	0	91.7	29.9	35.7	0	2	0	0	0	42.9	35.5	65.2
2017 03/24 01:30	31.4	103.5	230.6	20.1	29.91	60.7	1.7	13.01	-40.4	0	91.6	29.9	35.8	0	4	0	0	0	42.6	35.5	65.2
2017 03/24 01:45	31.7	103.6	183.8	16.9	29.90	60.9	3.4	13.02	-40.0	0	92.0	29.9	35.8	0	0	0	0	0	42.4	35.5	65.2
2017 03/24 02:00	31.7	103.5	121.6	17.1	29.90	61.1	2.7	13.00	-39.9	0	92.0	29.9	35.5	0	3	0	0	0	42.3	35.5	65.0
2017 03/24 02:15	31.6	103.5	308.3	17.3	29.89	61.1	3.1	13.00	-40.0	0	91.7	29.9	35.4	0	1	0	0	0	42.2	35.5	65.0
2017 03/24 02:30	31.6	103.5	182.6	17.3	29.90	61.4	0.0	13.01	-40.0	0	91.9	29.9	35.4	0	1	0	0	0	42.0	35.5	65.0
2017 03/24 02:45	31.6	103.5	210.5	19.8	29.89	61.6	0.0	13.01	-40.0	0	92.0	29.0	35.1	0	2	0	0	0	42.0	35.5	65.0
2017 03/24 03:00	31.6	103.6	355.9	16.7	29.89	61.7	0.0	13.00	-40.1	0	91.7	29.9	35.4	0	0	0	0	0	41.6	35.5	65.3
2017 03/24 03:15	31.7	103.5	30.6	13.9	29.88	61.8	-0.3	13.01	-40.0	0	91.9	29.9	35.7	0	0	0	0	0	41.6	35.4	65.3
2017 03/24 03:30	32.4	103.6	209.9	12.1	29.88	62.0	0.0	13.01	-39.9	0	92.2	29.9	35.7	0	1	0	0	0	41.4	35.4	65.3
2017 03/24 03:45	31.8	103.6	56.3	12.2	29.88	62.1	0.0	13.03	-40.0	0	92.3	29.9	35.8	0	1	0	0	0	41.4	35.4	65.3
2017 03/24 04:00	31.8	103.6	265.6	16.2	29.86	62.1	-0.3	13.01	-39.9	0	92.3	30.8	36.0	0	2	0	0	0	41.2	35.4	65.2
2017 03/24 04:15	31.7	103.6	185.5	15.5	29.86	62.4	0.0	12.99	-40.1	0	92.4	29.9	36.2	0	0	0	0	0	41.2	35.4	65.2
2017 03/24 04:30	31.6	103.6	213.4	14.2	29.86	62.4	-0.3	13.01	-40.0	0	92.4	29.9	36.1	0	1	0	0	0	41.1	35.4	65.2
2017 03/24 04:45	31.7	103.6	294.1	18.1	29.86	62.6	0.0	13.03	-40.0	0	92.3	29.9	35.8	0	2	0	0	0	41.0	35.3	65.2
2017 03/24 05:00	31.8	103.6	174.6	20.4	29.86	62.5	0.0	13.01	-40.0	0	91.9	29.9	35.4	0	0	0	0	0	40.7	35.4	65.4
2017 03/24 05:15	31.7	103.5	15.1	20.9	29.86	62.7	0.0	13.00	-40.0	0	92.1	29.0	35.0	0	3	0	0	0	40.7	35.4	65.4
2017 03/24 05:30	31.3	103.5	213.8	21.3	29.85	62.8	0.0	13.01	-39.9	0	91.7	29.0	35.0	0	0	0	0	0	40.7	35.4	65.4
2017 03/24 05:45	31.1	103.7	193.6	21.3	29.86	62.8	-0.3	13.01	-40.0	0	92.2	29.0	34.8	0	1	0	0	0	40.6	35.3	65.4
2017 03/24 06:00	30.8	103.7	220.5	18.6	29.85	62.9	0.0	13.01	-40.0	0	91.8	29.0	34.8	0	1	0	0	0	40.4	35.3	65.4
2017 03/24 06:15	30.7	103.5	217.0	17.9	29.85	63.0	0.0	13.00	-40.2	0	91.2	29.0	34.8	0	0	0	0	0	40.2	35.3	65.4
2017 03/24 06:30	30.6	103.6	232.8	20.0	29.85	63.0	0.7	13.01	-40.0	0	92.4	28.1	34.6	0	1	0	0	0	40.0	35.3	65.4
2017 03/24 06:45	30.3	103.7	227.8	18.4	29.85	63.0	14.3	13.00	-40.0	0	92.0	28.1	34.2	0	0	0	0	0	39.9	35.3	65.4
2017 03/24 07:00	30.2	103.8	207.4	18.9	29.85	63.0	120.1	12.99	-40.0	0	92.2	28.1	34.0	0	0	0	0	0	39.9	35.2	65.4
2017 03/24 07:15	30.0	103.7	220.2	28.4	29.85	63.0	313.8	13.01	-39.9	0	92.5	28.1	33.6	0	0	0	0	0	39.8	35.2	65.4
2017 03/24 07:30	30.0	103.7	208.5	28.8	29.85	62.9	547.1	13.02	-40.0	0	92.8	28.1	33.6	0	0	0	0	0	39.7	35.2	65.4
2017 03/24 07:45	29.7	103.6	209.6	29.5	29.85	62.8	655.9	12.99	-39.9	0	92.7	28.1	33.6	0	0	0	0	0	39.8	35.2	65.4
2017 03/24 08:00	29.7	103.7	206.2	26.5	29.85	62.7	704.0	13.01	-40.0	0	93.6	28.1	33.6	0	0	0	0	0	39.5	35.1	65.6
2017 03/24 08:15	29.6	103.6	226.8	23.6	29.85	62.5	757.0	13.02	-39.9	0	93.5	28.1	33.1	0	0	0	0	0	39.4	35.1	65.6
2017 03/24 08:30	29.5	103.7	222.1	24.2	29.85	62.5	771.0	12.99	-39.9	0	93.8	28.1	33.4	0	0	0	0	0	39.4	35.2	65.6
2017 03/24 08:45	29.6	103.6	223.3	24.8	29.84	62.3	820.0	13.00	-39.9	0	93.9	28.1	33.7	0	0	0	0	0	39.3	35.1	65.6
2017 03/24 09:00	29.5	103.6	213.4	25.2	29.84	62.2	838.0	13.00	-39.9	0	94.2	28.1	33.9	0	0	0	0	0	39.3	35.1	65.6
2017 03/24 09:15	29.1	103.6	222.3	28.8	29.84	62.1	847.0	12.98	-40.0	0	93.7	28.1	33.9	0	0	0	0	0	39.2	35.1	65.6
2017 03/24 09:30	29.1	103.5	216.2	27.8	29.84	62.0	889.0	12.99	-40.1	0	94.4	28.1	34.3	0	0	0	0	0	39.0	35.1	65.6
2017 03/24 09:45	29.4	103.3	213.5	28.0	29.85	61.9	896.0	13.01	-40.0	0	94.8	28.1	34.6	0	0	0	0	0	39.2	35.0	65.6
2017 03/24 10:00	29.2	103.3	225.3	28.0	29.85	61.8	903.0	13.00	-39.6	0	94.6	29.0	35.0	0	0	0	0	0	39.3	35.0	65.6
2017 03/24 10:15	29.7	103.4	218.7	29.3	29.85	61.6	899.0	13.02	-40.0	0	95.2	28.1	34.9	0	1	0	0	0	39.4	35.0	65.6
2017 03/24 10:30	29.4	103.5	238.6	27.3	29.86	61.4	908.0	13.01	-40.0	0	95.4	28.1	35.2	0	1	0	0	0	39.4	35.0	65.6
2017 03/24 10:45	29.7	103.5	252.8	24.5	29.87	61.1	925.0	13.01	-39.9	0	95.1	29.0	36.2	0	0	0	0	0	39.6	35.0	65.6
2017 03/24 11:00	29.6	103.5	236.1	22.8	29.87	60.9	917.0	12.99	-40.0	0	94.8	28.1	35.7	0	0	0	0	0	39.8	35.0	65.8
2017 03/24 11:15	29.1	103.5	244.2	25.1	29.88	60.7	923.0	12.99	-40.0	0	94.8	28.1	36.1	0	0	0	0	0	39.7	35.0	65.8
2017 03/24 11:30	28.9	103.6	220.6	21.6	29.88	60.5	925.0	12.99	-40.1	0	94.8	28.1	35.9	0	0	0	0	0	39.9	35.0	65.8
2017 03/24 11:45	29.2	103.6	243.0	30.5	29.88	60.3	924.0	13.00	-40.0	0	94.5	29.0	35.4	0	0	0	0	0	40.3	35.0	65.8
2017 03/24 12:00	29.0	103.7	207.1	38.9	29.87	60.1	907.0	13.00	-40.1	0	95.0	28.1	34.8	0	1	0	0	0	40.2	35.1	65.8
2017 03/24 12:15	29.0	103.5	233.6	37.2	29.88	59.9	929.0	12.99	-40.0	0	94.5	29.0	36.0	0	1	0	0	0	40.6	35.0	65.8
2017 03/24 12:30	29.6	103.5	231.5	38.9	29.88	59.7	935.0	13.01	-40.0	0	94.5	29.0	36.7	0	0	0	0	0	40.4	35.0	65.8
2017 03/24 12:45	30.5	103.6	226.5	36.8	29.89	59.5	937.0	13.01	-40.0	0	94.5	29.0	36.6	0	0	0	0	0	40.5	35.1	65.8
2017 03/24 13:00	30.5	103.7	224.4	36.7	29.89	59.4	935.0	13.01	-40.0	0	94.7	29.0	36.8	0	1	0	0	0	40.8	35.1	65.8
2017 03/24 13:15	30.1	103.7	237.8	32.4	29.90	59.3	921.0	12.99	-39.9	0	94.9	29.0	36.6	0	1	0	0	0	41.0	35.1	65.8
2017 03/24 13:30	29.6	103.7	239.3	35.1	29.90	59.3	929.0	12.99	-40.0	0	95.0	28.1	36.4	0	0	0	0	0	41.3	35.1	65.8
2017 03/24 13:45	29.5	103.9	238.5	33.2	29.91	59.1	925.0	12.99	-40.0	0	95.0	28.1	37.0	0	0	0	0	0	41.4	35.3	65.8
2017 03/24 14:00	29.9	103.8	233.9	35.6	29.90	59.0	929.0	12.98	-40.0	0	95.0	28.1	37.9	0	1	0	0	0	43.7	35.3	65.8
2017 03/24 14:15	30.0	103.8	226.0	41.2	29.90	58.8	923.0	13.01	-39.9	0	95.0	28.1	36.7	0	0	0	0	0	47.0	35.3	65.8
2017 03/24 14:30	30.1	103.8	238.2	38.4	29.90	58.5	918.0	12.99	-39.9	0	94.9	29.0	36.7	0	1	0	0	0	50.9	35.3	65.8
2017 03/24 14:45	30.2	103.6	226.7	36.6	29.90	58.4	914.0	12.99	-40.0	0	94.9	29.0	36.4	0	2	0	0	0	53.4	35.3	65.8
2017 03/24 15:00	30.4	103.7	231.8	27.2	29.91	58.2	909.0	12.99	-40.0	0	94.3	29.0	36.7	0	1	0	0	0	54.9	35.4	65.8
2017 03/24 15:15	30.5	103.7	238.3	33.5	29.91	58.1	902.0	13.01	-39.8	0	94.7	29.0	36.4	0	0	0	0	0	56.4	35.4	65.8
2017 03/24 15:30	30.4	103.7	218.7	28.4	29.92	58.0	900.0	12.99	-39.9	0	94.7	29.0	36.6	0	1	0	0	0	57.6	35.4	65.8
2017 03/24 15:45	30.1	103.7	213.4	30.8	29.92	58.0	884.0	13.01	-40.2	0	94.8	29.0	36.1	0	2	0	0	0	59.3	35.4	65.8
2017 03/24 16:00	29.7	103.7	225.5	22.0	29.93	58.0	865.0	13.00	-40.1	0	94.8	28.1	35.5	0	0	0	0	0	60.7	35.4	65.8
2017 03/24 16:15	29.9	103.9	232.8	28.6	29.93	57.9	888.0	12.99	-40.0	0	93.7	28.1	35.4	0	0	0	0	0	61.9	35.5	65.8
2017 03/24 16:30	29.4	103.8	223.7	29.5	29.93	57.8	898.0	12.99	-40.0	0	93.7	28.1	36.3	0	0	0	0	0	62.9	35.5	65.8
2017 03/24 16:45	29.4	103.9	232.8	26.5	29.94	57.7	897.0	12.99	-39.9	0	95.6	28.1	36.3	0	0	0	0	0	64.1	35.5	65.8
2017 03/24 17:00	29.3	103.7	198.7	31.3	29.94	57.6	888.0	13.01	-39.9	0	95.6	28.1	35.7	0	0	0	0	0	64.8	35.7	65.8
2017 03/24 17:15	29.5	103.6	244.5	29.2	29.94	57.4	868.0	12.99	-40.0	0	95.6	28.1	35.5	0	0	0	0	0	65.8	35.7	65.8
2017 03/24 17:30	29.3	103.7	229.8	25.4	29.94	57.1	858.0	12.99	-40.1	0	95.6	28.1	35.0	0	0	0	0	0	66.5	35.7	65.8
2017 03/24 17:45	29.1	103.5	250.6	30.6	29.93	56.9	855.0	12.99	-40.0	0	95.6	28.1	35.0	0	0	0	0	0	67.7	35.8	65.8
2017 03/24 18:00	28.8	103.3	220.8	40.0	29.92	56.5	864.0	12.99	-40.0	0	95.7	28.1	34.6	0	0	0	0	0	69.1	35.8	65.8
2017 03/24 18:15	28.8	103.1	233.4	31.5	29.92	56.2	772.0	13.01	-40.0	0	96.1	27.2	34.3	0	0	0	0	0	69.9	35.8	65.8
2017 03/24 18:30	28.9	103.1	229.2	39.4	29.90	55.6	704.0	13.01	-40.0	0	96.1	28.1	34.4	0	0	0	0	0	70.4	35.8	65.8
2017 03/24 18:45	29.1	103.1	222.8	40.6	29.90	55.2	641.6	12.99	-39.9	0	95.7	28.1	34.3	0	0	0	0	0	71.0	35.9	65.8
2017 03/24 19:00	29.0	103.1	237.9	31.5	29.90	54.8	637.1	13.01	-40.0	0	95.7	28.1	34.3	0	0	0	0	0	71.0	35.9	65.8
2017 03/24 19:15	29.4	103.1	226.1	22.1	29.92	54.4	417.0	13.01	-40.0	0	96.1	27.2	34.0	0	0	0	0	0	71.1	36.0	65.8
2017 03/24 19:30	28.9	103.1	239.7	27.9	29.92	53.9	218.5	13.01	-40.0	0	95.7	27.2	34.3	0	0	0	0	0	71.1	35.9	65.8
2017 03/24 19:45	28.6	103.0	297.5	43.6	29.90	53.5	27.8	13.01	-40.0	0	96.3	27.2	34.1	0	0	0	0	0	70.8	36.0	65.8
2017 03/24 20:00	28.8	102.9	227.2	36.2	29.89	53.1	1.4	12.98	-39.9	0	96.5	27.2	34.3	0	0	0	0	0	70.4	36.0	65.8
2017 03/24 20:15	28.5	103.0	257.8	31.1	29.90	52.6	0.3	13.00	-40.1	0	96.4	27.2	34.1	0	0	0	0	0	70.4	36.0	65.8
2017 03/24 20:30	28.6	102.7	237.7	39.4	29.92	52.2	0.0	12.99	-40.0	0	95.6	27.2	34.2	0	0	0	0	0	71.0	36.0	65.8
2017 03/24 20:45	28.8	102.7	199.5	34.5	29.91	51.8	0.0	12.99	-40.0	0	96.5	27.2	34.1	0	0	0	0	0	71.9	36.0	65.8
2017 03/24 21:00	28.6	102.8	245.6	37.8	29.92	51.4	0.3	12.99	-39.9	0	96.6	27.2	34.2	0	0	0	0	0	72.3	36.1	65.9
2017 03/24 21:15	28.9	102.9	224.6	37.4	29.91	50.9	0.0	13.02	-40.0	0	96.8	27.2	33.9	0	0	0	0	0	72.7	36.1	65.9
2017 03/24 21:30	28.6	102.8	247.2	38.0	29.92	50.5	10.9	12.98	-39.9	0	96.7	27.2	33.9	0	0	0	0	0	72.6	36.1	65.9
2017 03/24 21:45	28.9	102.7	278.1	16.7	29.93	50.1	11.2	13.00	-40.0	0	96.7	27.2	34.3	0	0	0	0	0	72.1	36.1	65.9
2017 03/24 22:00	28.5	102.9	269.5	26.0	29.92	49.9	13.2	12.98	-39.9	0	94.7	27.2	33.9	0	0	0	0	0	71.4	36.2	65.9
2017 03/24 22:15	28.4	102.9	258.9	42.0	29.92	49.5	32.6	12.98	-40.1	0	96.2	27.2	33.9	0	0	0	0	0	70.6	36.2	65.9
2017 03/24 22:30	28.3	102.7	213.6	36.0	29.92	49.2	20.0	13.00	-39.9	0	96.9	27.2	33.9	0	0	0	0	0	70.5	36.2	65.9
2017 03/24 22:45	28.4	102.7	233.5	39.3	29.91	48.9	36.6	13.00	-39.9	0	97.0	27.2	33.5	0	0	0	0	0	69.8	36.2	65.9
2017 03/24 23:00	28.0	102.6	195.4	34.8	29.91	48.6	4.8	13.00	-40.1	0	97.1	27.2	33.6	0	0	0	0	0	69.1	36.2	65.8
2017 03/24 23:15	28.3	102.7	222.2	40.0	29.90	48.2	3.7	12.98	-39.9	0	97.1	27.2	33.4	0	0	0	0	0	68.3	36.2	65.8
2017 03/24 23:30	28.2	102.5	270.6	36.4	29.89	48.0	0.0	12.98	-39.9	0	97.1	27.2	33.4	0	0	0	0	0	67.3	36.3	65.8
2017 03/24 23:45	28.4	102.6	217.8	51.1	29.87	47.6	-0.3	12.99	-40.0	0	97.2	27.2	33.4	0	0	0	0	0	66.7	36.2	65.8
2017 03/25 00:00	28.3	102.5	243.4	40.6	29.89	47.4	0.0	12.99	-39.9	0	97.1	27.2	33.4	0	0	0	0	0	66.9	36.3	65.9
2017 03/25 00:15	28.4	102.6	231.5	40.5	29.89	47.0	0.0	12.99	-39.9	0	96.5	27.2	33.5	0	0	0	0	0	66.8	36.2	65.9
2017 03/25 00:30	28.5	102.7	212.0	29.4	29.90	46.7	0.0	12.98	-39.9	0	97.3	27.2	33.5	0	0	0	0	0	67.2	36.2	65.9
2017 03/25 00:45	28.3	102.6	231.3	39.8	29.89	46.5	0.0	13.00	-39.9	0	96.9	27.2	33.4	0	0	0	0	0	68.2	36.3	65.9
2017 03/25 01:00	28.3	102.6	244.3	33.3	29.90	46.2	0.0	13.00	-39.9	0	97.4	27.2	33.3	0	0	0	0	0	69.0	36.2	65.9
2017 03/25 01:15	28.4	102.5	263.9	25.3	29.91	46.0	0.0	13.00	-40.1	0	98.0	26.3	33.1	0	0	0	0	0	69.6	36.2	65.9
2017 03/25 01:30	28.3	102.6	258.8	18.4	29.91	45.8	0.0	13.01	-39.9	0	97.7	26.3	32.7	0	0	0	0	0	70.2	36.2	65.9
2017 03/25 01:45	28.0	102.5	274.6	21.2	29.91	45.7	0.0	12.99	-40.0	0	97.6	26.3	32.7	0	0	0	0	0	70.5	36.2	65.9
2017 03/25 02:00	27.7	102.5	236.7	26.0	29.91	45.5	0.0	12.98	-39.9	0	97.3	26.3	32.6	0	0	0	0	0	70.8	36.2	65.9
2017 03/25 02:15	27.8	102.3	256.3	24.2	29.90	45.2	26.5	12.98	-39.9	0	97.9	26.3	32.5	0	0	0	0	0	71.4	36.2	65.9
2017 03/25 02:30	27.8	102.3	241.1	26.1	29.90	45.1	0.0	12.99	-40.0	0	96.4	26.3	32.5	0	0	0	0	0	71.8	36.2	65.9
2017 03/25 02:45	27.7	102.3	231.8	25.6	29.90	44.9	-0.3	12.99	-40.0	0	97.2	26.3	32.5	0	0	0	0	0	72.1	36.2	65.9
2017 03/25 03:00	27.7	102.3	232.6	19.1	29.90	44.8	0.0	12.98	-40.0	0	97.2	26.3	32.4	0	0	0	0	0	71.5	36.2	65.9
2017 03/25 03:15	27.4	102.3	236.4	17.4	29.90	44.7	7.8	12.98	-39.9	0	97.7	26.3	32.3	0	0	0	0	0	71.2	36.2	65.9
2017 03/25 03:30	27.2	102.3	189.7	18.4	29.89	44.6	0.0	12.98	-39.9	0	97.6	25.4	32.2	0	0	0	0	0	70.6	36.2	65.9
2017 03/25 03:45	27.3	101.4	275.3	20.7	29.89	44.4	-0.3	12.98	-40.0	0	97.6	25.4	32.3	0	0	0	0	0	69.9	36.2	65.9
2017 03/25 04:00	27.2	102.2	235.3	17.6	29.89	44.3	0.0	13.00	-39.9	0	97.1	25.4	32.3	0	0	0	0	0	69.2	36.2	66.0
2017 03/25 04:15	27.1	102.1	241.3	21.4	29.89	44.2	0.0	13.01	-39.9	0	98.6	25.4	32.3	0	0	0	0	0	69.3	36.2	66.0
2017 03/25 04:30	26.9	102.1	273.9	20.6	29.89	44.1	0.0	13.00	-40.0	0	98.9	25.4	32.3	0	0	0	0	0	69.5	36.2	66.0
2017 03/25 04:45	26.7	102.1	264.7	23.8	29.88	44.0	-0.3	12.99	-40.0	0	99.1	25.4	32.1	0	0	0	0	0	69.6	36.2	66.0
2017 03/25 05:00	26.4	102.0	233.6	23.2	29.88	43.9	0.0	12.97	-40.0	0	99.1	25.4	32.0	0	0	0	0	0	70.2	36.2	66.0
2017 03/25 05:15	26.6	101.9	238.6	28.7	29.88	43.6	0.0	12.98	-40.0	0	98.1	25.4	32.1	0	0	0	0	0	70.0	36.2	66.0
2017 03/25 05:30	26.5	101.9	241.1	24.4	29.89	43.5	0.0	12.98	-39.9	0	99.2	25.4	32.4	0	0	0	0	0	70.0	36.2	66.0
2017 03/25 05:45	26.3	101.9	255.3	22.0	29.89	43.4	0.0	12.98	-40.0	0	99.2	24.5	32.5	0	0	0	0	0	69.4	36.2	66.0
2017 03/25 06:00	26.5	101.8	231.4	22.2	29.89	43.3	0.0	12.98	-40.0	0	99.3	24.5	32.7	0	0	0	0	0	69.2	36.2	66.0
2017 03/25 06:15	26.2	101.7	244.3	21.5	29.89	43.1	0.0	13.01	-40.1	0	99.4	24.5	33.1	0	0	0	0	0	68.7	36.2	66.0
2017 03/25 06:30	26.2	101.8	271.4	18.5	29.89	43.0	2.7	12.98	-39.9	0	99.4	24.5	33.2	0	0	0	0	0	68.3	36.2	66.0
2017 03/25 06:45	26.1	101.7	238.8	26.9	29.88	42.9	63.1	13.00	-40.1	0	99.3	24.5	33.1	0	0	0	0	0	68.1	36.2	66.0
2017 03/25 07:00	26.1	101.7	231.7	20.2	29.89	42.8	264.4	12.99	-40.0	0	97.1	24.5	32.5	0	0	0	0	0	68.3	36.2	66.0
2017 03/25 07:15	26.2	101.9	234.0	23.5	29.89	42.7	555.9	12.97	-40.0	0	99.3	24.5	33.0	0	0	0	0	0	68.3	36.2	66.0
2017 03/25 07:30	26.1	101.7	241.8	28.7	29.89	42.5	767.0	13.00	-40.0	0	99.3	25.4	32.8	0	0	0	0	0	68.3	36.1	66.0
2017 03/25 07:45	26.5	101.9	229.7	32.8	29.88	42.4	829.0	12.98	-39.9	0	99.2	26.3	33.4	0	0	0	0	0	68.7	36.1	66.0
2017 03/25 08:00	26.8	101.9	234.0	28.5	29.89	42.3	872.0	12.97	-39.8	0	99.2	26.3	34.1	0	0	0	0	0	70.0	36.1	66.1
2017 03/25 08:15	27.4	102.1	239.1	30.9	29.88	42.2	870.0	13.00	-40.0	0	99.3	26.3	34.2	0	0	0	0	0	70.4	36.2	66.1
2017 03/25 08:30	27.4	102.3	244.1	31.4	29.88	42.0	865.0	12.96	-39.9	0	99.2	26.3	33.9	0	0	0	0	0	70.9	36.2	66.1
2017 03/25 08:45	27.4	102.3	232.0	31.6	29.88	41.9	862.0	13.00	-39.9	0	99.3	26.3	34.4	0	0	0	0	0	70.9	36.2	66.1
2017 03/25 09:00	27.9	102.4	213.7	27.6	29.88	41.8	889.0	12.98	-40.0	0	99.4	26.3	34.0	0	0	0	0	0	70.5	36.2	66.2
2017 03/25 09:15	27.8	102.4	229.3	25.9	29.88	41.7	896.0	12.98	-39.6	0	99.1	27.2	35.5	0	0	0	0	0	70.4	36.2	66.2
2017 03/25 09:30	28.4	102.6	229.0	28.2	29.88	41.8	895.0	12.99	-40.0	0	99.2	27.2	35.1	0	0	0	0	0	69.6	36.2	66.2
2017 03/25 09:45	28.4	102.7	223.2	24.6	29.89	41.9	910.0	12.98	-39.8	0	99.1	28.1	35.8	0	0	0	0	0	70.3	36.2	66.2
2017 03/25 10:00	29.0	102.7	232.6	25.3	29.89	42.0	903.0	13.00	-40.0	0	99.1	28.1	35.1	0	0	0	0	0	70.8	36.3	66.2
2017 03/25 10:15	29.4	103.0	221.2	21.6	29.90	42.3	926.0	13.01	-40.0	0	99.1	28.1	36.7	0	0	0	0	0	71.4	36.3	66.2
2017 03/25 10:30	30.1	103.2	216.9	23.2	29.90	42.6	903.0	13.00	-40.0	0	99.1	28.1	35.7	0	0	0	0	0	72.7	36.3	66.2
2017 03/25 10:45	29.9	103.2	239.8	23.4	29.90	42.9	934.0	12.99	-40.1	0	99.1	28.1	35.9	0	0	0	0	0	73.7	36.3	66.2
2017 03/25 11:00	30.4	103.2	233.7	25.1	29.90	43.2	932.0	12.98	-40.0	0	99.1	28.1	36.4	0	0	0	0	0	74.7	36.5	66.3
2017 03/25 11:15	30.7	103.3	256.6	25.4	29.91	43.6	928.0	12.97	-40.0	0	99.1	28.1	37.3	0	0	0	0	0	75.6	36.5	66.3
2017 03/25 11:30	31.1	103.4	223.1	23.4	29.93	44.1	920.0	12.99	-40.0	0	99.1	28.1	36.3	0	0	0	0	0	76.0	36.6	66.3
2017 03/25 11:45	31.1	103.2	240.5	29.8	29.92	44.6	932.0	13.00	-40.0	0	99.1	28.1	36.9	0	0	0	0	0	76.7	36.7	66.3
2017 03/25 12:00	31.1	103.2	231.9	22.9	29.93	45.0	937.0	13.01	-39.9	0	98.3	30.8	37.5	0	0	0	0	0	77.0	36.8	66.3
2017 03/25 12:15	31.2	103.4	221.7	28.1	29.93	45.5	939.0	13.00	-40.1	0	98.2	30.8	39.3	0	0	0	0	0	78.1	36.9	66.3
2017 03/25 12:30	31.2	103.4	227.6	34.2	29.93	45.9	947.0	12.99	-40.0	0	98.2	32.6	40.0	0	0	0	0	0	79.2	36.9	66.3
2017 03/25 12:45	31.6	103.5	263.3	28.1	29.94	46.5	939.0	12.99	-40.0	0	98.1	31.7	38.0	0	0	0	0	0	80.5	37.1	66.3
2017 03/25 13:00	31.3	103.6	236.6	33.1	29.95	46.9	935.0	12.99	-39.9	0	98.2	31.7	38.5	0	0	0	0	0	81.6	37.1	66.3
2017 03/25 13:15	31.3	103.4	245.4	41.5	29.94	47.3	948.0	13.01	-39.9	0	98.2	31.7	40.8	0	0	0	0	0	82.7	37.2	66.3
2017 03/25 13:30	31.5	103.5	232.6	30.0	29.96	47.5	936.0	13.00	-40.0	0	98.2	31.7	39.1	0	0	0	0	0	83.6	37.4	66.3
2017 03/25 13:45	31.0	103.7	231.8	34.8	29.94	47.6	923.0	12.99	-40.0	0	97.9	33.5	38.7	0	0	0	0	0	84.6	37.5	66.3
2017 03/25 14:00	30.2	103.7	233.7	31.6	29.94	47.6	938.0	13.01	-40.1	0	97.9	33.5	39.1	0	0	0	0	0	85.0	37.6	66.3
2017 03/25 14:15	30.7	103.5	237.7	34.2	29.94	47.7	916.0	13.00	-40.0	0	97.9	33.5	39.1	0	0	0	0	0	85.5	37.8	66.3
2017 03/25 14:30	30.4	103.6	241.7	35.8	29.94	47.6	938.0	12.98	-39.9	0	97.9	33.5	40.5	0	0	0	0	0	85.6	37.9	66.3
2017 03/25 14:45	30.6	103.5	258.9	19.8	29.94	47.5	930.0	12.98	-40.0	0	97.6	31.7	39.5	0	0	0	0	0	85.7	38.1	66.3
2017 03/25 15:00	31.4	103.5	240.7	26.5	29.94	47.5	934.0	12.98	-40.0	0	97.2	35.3	40.5	0	0	0	0	0	85.5	38.1	66.3
2017 03/25 15:15	31.2	103.7	230.3	31.5	29.92	47.7	923.0	13.00	-39.9	0	97.3	32.6	39.1	0	0	0	0	0	85.8	38.4	66.3
2017 03/25 15:30	31.0	103.5	222.5	25.2	29.93	47.7	936.0	12.99	-40.0	0	97.3	32.6	40.6	0	0	0	0	0	85.8	38.5	66.3
2017 03/25 15:45	31.3	103.6	251.7	33.5	29.93	47.8	932.0	13.00	-40.0	0	97.1	33.5	39.6	0	0	0	0	0	86.1	38.6	66.3
2017 03/25 16:00	31.4	103.5	256.3	33.4	29.93	47.9	919.0	12.98	-40.0	0	97.0	33.5	39.8	0	0	0	0	0	86.4	38.6	66.3
2017 03/25 16:15	30.5	103.8	213.8	32.4	29.94	48.0	894.0	12.99	-40.0	0	97.0	33.5	38.4	0	0	0	0	0	86.6	38.6	66.3
2017 03/25 16:30	30.5	103.6	247.0	19.9	29.95	48.2	898.0	13.00	-40.1	0	97.0	33.5	37.6	0	0	0	0	0	86.6	38.7	66.3
2017 03/25 16:45	30.6	103.6	241.2	15.3	29.95	48.3	900.0	13.02	-39.8	0	97.0	33.5	37.6	0	0	0	0	0	86.3	38.7	66.3
2017 03/25 17:00	30.5	103.7	263.5	17.4	29.94	48.4	884.0	12.98	-40.0	0	97.0	33.5	37.0	0	0	0	0	0	85.7	38.7	66.4
2017 03/25 17:15	30.5	103.8	251.7	15.7	29.94	48.6	875.0	12.98	-40.1	0	97.0	33.5	37.2	0	0	0	0	0	84.7	38.7	66.4
2017 03/25 17:30	30.5	103.8	233.1	18.7	29.94	48.6	912.0	13.02	-40.1	0	97.0	33.5	37.7	0	0	0	0	0	84.3	38.7	66.4
2017 03/25 17:45	30.6	103.7	259.1	19.5	29.93	48.6	842.0	13.00	-40.1	0	97.0	33.5	37.1	0	0	0	0	0	83.0	38.7	66.4
2017 03/25 18:00	30.4	103.8	232.7	15.2	29.93	48.6	843.0	13.02	-40.1	0	97.0	33.5	37.0	0	0	0	0	0	82.1	38.7	66.2
2017 03/25 18:15	30.2	103.8	238.9	18.7	29.93	48.7	797.0	12.98	-39.9	0	97.0	33.5	36.3	0	0	0	0	0	81.5	38.7	66.2
2017 03/25 18:30	30.0	103.8	266.1	22.4	29.92	48.6	773.0	13.00	-39.9	0	96.9	28.1	36.0	0	0	0	0	0	81.1	38.6	66.2
2017 03/25 18:45	29.6	103.7	239.8	18.7	29.93	48.6	668.4	12.98	-40.0	0	96.6	28.1	35.3	0	0	0	0	0	81.8	38.7	66.2
2017 03/25 19:00	29.4	103.8	259.2	16.2	29.93	48.6	649.7	12.99	-39.9	0	96.5	28.1	34.6	0	0	0	0	0	81.1	38.6	66.2
2017 03/25 19:15	29.1	103.6	215.0	20.4	29.93	48.5	436.0	13.00	-40.0	0	96.5	28.1	34.8	0	0	0	0	0	81.0	38.6	66.2
2017 03/25 19:30	29.0	103.6	240.7	23.4	29.92	48.4	247.0	13.00	-40.2	0	96.4	27.2	35.1	0	0	0	0	0	81.2	38.5	66.2
2017 03/25 19:45	28.6	103.3	225.3	24.1	29.91	48.2	41.0	12.98	-40.0	0	96.3	27.2	34.4	0	0	0	0	0	81.5	38.5	66.2
2017 03/25 20:00	28.6	103.2	207.4	25.4	29.91	47.9	2.7	12.98	-40.0	0	96.3	27.2	34.3	0	0	0	0	0	82.2	38.4	66.2
2017 03/25 20:15	28.5	103.1	232.2	25.9	29.90	47.7	0.0	12.98	-40.0	0	96.3	27.2	34.2	0	0	0	0	0	82.6	38.4	66.2
2017 03/25 20:30	28.4	103.1	243.2	26.5	29.91	47.5	0.0	12.98	-40.4	0	96.2	27.2	34.3	0	0	0	0	0	82.1	38.4	66.2
2017 03/25 20:45	28.6	102.9	208.8	26.9	29.89	47.3	0.0	12.99	-40.0	0	96.5	27.2	34.4	0	0	0	0	0	81.9	38.4	66.2
2017 03/25 21:00	28.5	102.9	225.5	23.8	29.90	47.0	28.2	12.99	-40.0	0	96.5	27.2	34.5	0	0	0	0	0	82.4	38.2	66.2
2017 03/25 21:15	28.4	102.9	244.2	23.1	29.89	46.8	29.2	12.99	-39.9	0	96.3	27.2	34.3	0	0	0	0	0	82.5	38.2	66.2
2017 03/25 21:30	28.3	102.6	227.7	21.5	29.88	46.6	27.8	13.00	-40.0	0	96.3	27.2	33.9	0	0	0	0	0	82.6	38.2	66.2
2017 03/25 21:45	28.3	102.7	223.6	15.7	29.88	46.5	38.0	13.02	-40.0	0	96.3	27.2	33.5	0	0	0	0	0	82.7	38.2	66.2
2017 03/25 22:00	28.2	102.7	219.6	15.4	29.88	46.6	40.7	12.98	-39.9	0	96.2	27.2	33.6	0	0	0	0	0	82.8	38.1	66.2
2017 03/25 22:15	28.0	102.6	242.9	13.4	29.88	46.7	39.4	12.99	-40.0	0	96.3	27.2	34.0	0	0	0	0	0	82.9	38.1	66.2
2017 03/25 22:30	28.2	102.6	222.6	13.1	29.88	46.8	41.7	13.00	-39.9	0	96.3	27.2	33.6	0	0	0	0	0	82.1	38.1	66.2
2017 03/25 22:45	28.2	102.6	219.1	7.8	29.87	47.2	28.5	13.01	-39.9	0	96.2	27.2	33.5	0	0	0	0	0	81.5	38.1	66.2
2017 03/25 23:00	28.2	102.6	203.2	8.8	29.87	47.5	29.2	13.02	-39.9	0	96.2	27.2	33.7	0	0	0	0	0	80.7	38.1	66.2
2017 03/25 23:15	28.3	102.5	211.7	14.5	29.88	48.0	27.1	12.99	-40.0	0	96.4	26.3	33.4	0	0	0	0	0	80.3	38.1	66.2
2017 03/25 23:30	28.3	102.6	231.3	11.4	29.88	48.4	25.4	12.98	-40.0	0	96.4	26.3	33.3	0	0	0	0	0	79.8	38.0	66.2
2017 03/25 23:45	28.4	102.5	192.1	15.2	29.89	48.9	25.4	13.00	-40.1	0	96.1	27.2	33.6	0	0	0	0	0	79.2	38.0	66.2
2017 03/26 00:00	28.3	102.7	246.3	10.7	29.89	49.5	0.0	13.02	-40.0	0	96.3	27.2	33.4	0	0	0	0	0	78.4	38.0	66.2
2017 03/26 00:15	28.3	102.7	206.8	18.6	29.89	49.9	0.0	13.00	-40.0	0	96.3	26.3	33.7	0	0	0	0	0	77.7	38.0	66.2
2017 03/26 00:30	28.3	102.6	219.1	20.5	29.89	50.4	-0.3	13.00	-40.0	0	96.3	26.3	33.3	0	0	0	0	0	77.9	38.0	66.2
2017 03/26 00:45	28.4	102.6	209.4	14.0	29.88	50.9	0.0	13.01	-40.0	0	96.3	26.3	33.4	0	0	0	0	0	77.6	38.0	66.2
2017 03/26 01:00	28.5	102.5	147.5	12.7	29.88	51.4	0.0	12.98	-40.0	0	96.1	27.2	33.3	0	0	0	0	0	77.3	37.9	66.2
2017 03/26 01:15	28.5	102.7	225.0	15.8	29.89	51.8	0.0	13.01	-40.0	0	96.3	26.3	33.6	0	0	0	0	0	78.1	37.9	66.2
2017 03/26 01:30	28.4	102.6	192.9	18.5	29.89	52.2	-0.3	12.99	-40.0	0	96.1	27.2	33.7	0	0	0	0	0	78.6	37.9	66.2
2017 03/26 01:45	28.3	102.7	216.9	14.4	29.88	52.5	0.0	13.01	-40.0	0	96.3	26.3	33.6	0	0	0	0	0	79.4	37.9	66.2
2017 03/26 02:00	28.5	102.5	218.7	23.5	29.89	52.9	25.8	13.01	-40.1	0	96.1	27.2	34.0	0	0	0	0	0	79.4	37.8	66.1
2017 03/26 02:15	28.5	102.6	216.9	21.9	29.90	53.1	0.0	12.99	-40.0	0	96.1	27.2	34.2	0	0	0	0	0	80.4	37.9	66.1
2017 03/26 02:30	28.6	102.7	216.4	29.1	29.89	53.4	0.0	13.01	-40.0	0	96.1	27.2	34.0	0	0	0	0	0	80.4	37.9	66.1
2017 03/26 02:45	28.5	102.7	234.4	23.8	29.89	53.7	0.3	12.99	-40.1	0	96.1	27.2	33.7	0	0	0	0	0	80.2	37.9	66.1
2017 03/26 03:00	28.4	102.6	218.0	7.1	29.88	53.9	0.0	13.02	-40.0	0	96.0	27.2	33.7	0	0	0	0	0	79.4	37.8	66.1
2017 03/26 03:15	28.4	102.5	267.8	8.3	29.88	54.1	0.0	13.01	-40.0	0	96.0	27.2	33.7	0	0	0	0	0	78.6	37.8	66.1
2017 03/26 03:30	28.3	102.7	230.3	8.5	29.88	54.6	0.0	13.01	-40.0	0	96.0	27.2	33.5	0	0	0	0	0	78.4	37.8	66.1
2017 03/26 03:45	28.4	102.6	121.1	8.1	29.88	54.9	0.0	13.00	-39.9	0	96.0	27.2	33.5	0	0	0	0	0	77.3	37.8	66.1
2017 03/26 04:00	28.3	102.7	152.3	11.4	29.87	55.2	0.0	12.99	-39.8	0	96.0	27.2	33.3	0	0	0	0	0	75.9	37.8	66.1
2017 03/26 04:15	28.1	102.6	210.1	13.9	29.86	55.6	0.0	13.00	-39.9	0	96.0	27.2	33.3	0	0	0	0	0	74.7	37.8	66.1
2017 03/26 04:30	28.1	102.5	330.3	12.7	29.85	55.9	-0.3	12.99	-39.9	0	96.1	27.2	33.6	0	0	0	0	0	75.1	37.8	66.1
2017 03/26 04:45	27.9	102.6	265.7	9.5	29.85	56.3	-0.3	13.01	-40.0	0	96.0	27.2	33.9	0	0	0	0	0	75.8	37.8	66.1
2017 03/26 05:00	28.1	102.5	121.6	13.3	29.85	56.5	0.0	13.01	-40.0	0	96.0	27.2	33.9	0	0	0	0	0	75.4	37.8	66.2
2017 03/26 05:15	27.8	102.3	284.2	12.6	29.85	56.9	0.0	12.99	-39.9	0	96.1	27.2	33.6	0	0	0	0	0	75.9	37.7	66.2
2017 03/26 05:30	27.8	102.4	221.3	15.7	29.83	57.1	-0.3	13.02	-40.0	0	95.9	26.3	33.7	0	0	0	0	0	76.6	37.7	66.2
2017 03/26 05:45	27.4	102.4	268.7	18.2	29.83	57.4	0.0	13.01	-40.0	0	95.6	25.4	33.2	0	0	0	0	0	77.4	37.7	66.2
2017 03/26 06:00	27.1	102.1	206.8	9.1	29.84	57.6	-0.3	13.02	-39.9	0	96.3	25.4	32.6	0	0	0	0	0	77.9	37.6	66.2
2017 03/26 06:15	26.7	102.1	278.6	5.4	29.84	58.0	0.0	13.03	-40.0	0	96.1	25.4	32.1	0	0	0	0	0	78.3	37.6	66.2
2017 03/26 06:30	26.4	101.9	150.3	4.1	29.84	58.2	1.4	13.00	-39.9	0	96.7	24.5	31.6	0	0	0	0	0	78.4	37.6	66.2
2017 03/26 06:45	26.2	101.8	216.1	6.7	29.84	58.4	60.4	13.02	-40.0	0	96.9	24.5	31.7	0	0	0	0	0	77.4	37.6	66.2
2017 03/26 07:00	26.4	101.7	203.4	9.7	29.84	58.6	190.3	13.03	-40.0	0	96.9	25.4	32.1	0	0	0	0	0	76.4	37.5	66.3
2017 03/26 07:15	26.2	101.8	207.6	12.8	29.84	58.6	415.9	12.99	-40.1	0	97.0	25.4	32.3	0	0	0	0	0	75.8	37.5	66.3
2017 03/26 07:30	26.2	101.6	206.7	16.2	29.84	58.6	599.8	13.00	-40.0	0	97.1	25.4	32.3	0	0	0	0	0	75.1	37.5	66.3
2017 03/26 07:45	26.3	101.8	187.4	11.5	29.84	58.6	686.0	12.99	-40.0	0	97.2	25.4	32.6	0	0	0	0	0	74.0	37.5	66.3
2017 03/26 08:00	26.4	101.9	224.0	8.0	29.83	58.6	757.0	13.02	-40.1	0	97.3	25.4	33.1	0	0	0	0	0	72.8	37.5	66.3
2017 03/26 08:15	26.8	101.8	130.6	8.7	29.82	58.6	800.0	13.03	-40.0	0	96.8	26.3	33.3	0	0	0	0	0	71.4	37.5	66.3
2017 03/26 08:30	27.3	102.1	257.6	9.4	29.82	58.7	829.0	13.00	-40.0	0	97.1	27.2	33.3	0	0	0	0	0	70.8	37.5	66.3
2017 03/26 08:45	27.9	102.5	243.0	8.7	29.82	58.8	849.0	13.00	-40.0	0	97.1	27.2	34.5	0	0	0	0	0	69.3	37.5	66.3
2017 03/26 09:00	28.1	102.6	189.8	9.3	29.82	59.0	860.0	13.03	-40.1	0	97.2	28.1	34.6	0	0	0	0	0	68.2	37.5	66.4
2017 03/26 09:15	28.6	102.8	198.6	14.8	29.82	59.0	848.0	13.02	-40.0	0	97.5	28.1	34.4	0	0	0	0	0	66.9	37.5	66.4
2017 03/26 09:30	28.9	102.9	253.7	13.4	29.81	59.0	880.0	13.01	-40.0	0	97.4	28.1	35.1	0	0	0	0	0	66.0	37.5	66.4
2017 03/26 09:45	29.2	102.9	239.3	12.6	29.81	59.0	879.0	12.99	-40.1	0	96.8	28.1	35.3	0	0	0	0	0	65.0	37.5	66.4
2017 03/26 10:00	29.5	103.0	168.3	13.2	29.81	59.2	903.0	13.00	-40.0	0	97.0	29.0	35.4	0	0	0	0	0	63.9	37.5	66.5
2017 03/26 10:15	29.6	103.2	218.3	11.8	29.81	59.2	915.0	13.02	-40.0	0	97.6	29.0	36.6	0	0	0	0	0	62.7	37.5	66.5
2017 03/26 10:30	30.2	103.2	262.2	16.4	29.81	59.3	904.0	13.02	-39.9	0	97.0	29.0	36.7	0	0	0	0	0	62.0	37.6	66.5
2017 03/26 10:45	30.7	103.3	149.6	13.9	29.81	59.3	913.0	12.99	-40.0	0	97.7	29.0	36.3	0	0	0	0	0	61.1	37.6	66.5
2017 03/26 11:00	30.7	103.4	300.8	17.2	29.80	59.4	919.0	12.99	-40.0	0	97.6	29.9	36.7	0	0	0	0	0	60.5	37.6	66.5
2017 03/26 11:15	31.1	103.4	197.3	16.9	29.80	59.4	922.0	12.98	-40.4	0	97.6	29.9	37.5	0	0	0	0	0	59.5	37.6	66.5
2017 03/26 11:30	31.4	103.3	88.7	15.4	29.80	59.4	923.0	13.02	-40.1	0	97.8	29.9	37.3	0	0	0	0	0	59.1	37.6	66.5
2017 03/26 11:45	31.8	103.5	198.7	16.1	29.81	59.6	932.0	13.01	-40.0	0	98.1	30.8	38.0	0	0	0	0	0	58.4	37.6	66.5
2017 03/26 12:00	31.8	103.4	337.3	13.8	29.81	59.8	926.0	13.02	-40.0	0	98.3	30.8	38.1	0	0	0	0	0	57.9	37.7	66.6
2017 03/26 12:15	31.6	103.4	219.6	16.6	29.80	59.9	917.0	13.01	-40.1	0	98.1	30.8	37.6	0	0	0	0	0	57.4	37.7	66.6
2017 03/26 12:30	31.6	103.5	235.1	18.0	29.80	60.0	925.0	13.00	-40.0	0	98.0	31.7	38.2	0	0	0	0	0	56.9	37.7	66.6
2017 03/26 12:45	31.7	103.5	178.7	16.0	29.80	60.1	908.0	12.99	-39.9	0	98.0	31.7	37.2	0	0	0	0	0	56.6	37.7	66.6
2017 03/26 13:00	31.6	103.4	210.9	18.8	29.80	60.1	904.0	13.00	-40.0	0	98.4	29.9	37.0	0	0	0	0	0	56.5	37.7	66.5
2017 03/26 13:15	31.4	103.7	186.9	18.4	29.80	60.2	885.0	12.99	-40.0	0	97.9	29.9	36.3	0	0	0	0	0	55.9	37.7	66.5
2017 03/26 13:30	31.6	103.7	227.4	17.2	29.80	60.3	910.0	12.99	-39.9	0	97.3	29.9	36.8	0	0	0	0	0	55.6	37.7	66.5
2017 03/26 13:45	31.9	103.7	67.3	22.8	29.80	60.3	906.0	12.99	-39.9	0	97.3	29.9	36.9	0	0	0	0	0	55.0	37.7	66.5
2017 03/26 14:00	31.6	103.7	229.8	21.8	29.81	60.4	883.0	13.01	-40.1	0	97.3	29.9	36.1	0	0	0	0	0	54.8	37.7	66.6
2017 03/26 14:15	31.7	103.7	207.0	20.1	29.81	60.3	893.0	13.01	-39.9	0	97.6	29.0	36.2	0	0	0	0	0	54.1	37.6	66.6
2017 03/26 14:30	31.7	103.7	210.5	21.4	29.80	60.3	917.0	12.99	-40.0	0	98.4	29.0	36.3	0	0	0	0	0	53.9	37.7	66.6
2017 03/26 14:45	31.7	103.7	219.4	25.8	29.79	60.1	936.0	12.99	-40.0	0	98.5	30.8	37.8	0	0	0	0	0	53.2	37.6	66.6
2017 03/26 15:00	31.7	103.9	190.5	21.2	29.79	59.9	922.0	12.99	-39.9	0	98.4	30.8	37.2	0	0	0	0	0	53.0	37.6	66.6
2017 03/26 15:15	31.6	103.4	261.4	22.2	29.79	59.6	903.0	13.01	-39.9	0	98.4	30.8	36.8	0	0	0	0	0	52.9	37.6	66.6
2017 03/26 15:30	31.6	103.6	213.8	26.4	29.80	59.6	891.0	12.99	-39.9	0	98.4	30.8	36.3	0	0	0	0	0	52.7	37.6	66.6
2017 03/26 15:45	31.6	103.7	220.9	21.8	29.79	59.4	900.0	12.98	-40.0	0	98.4	30.8	36.9	0	0	0	0	0	52.4	37.6	66.6
2017 03/26 16:00	31.6	103.7	206.3	33.3	29.80	59.2	895.0	12.99	-40.0	0	98.4	30.8	36.9	0	0	0	0	0	52.1	37.6	66.6
2017 03/26 16:15	31.4	103.7	228.2	26.9	29.80	59.2	892.0	12.98	-40.0	0	97.2	29.9	36.7	0	0	0	0	0	51.9	37.6	66.6
2017 03/26 16:30	31.3	103.7	220.9	32.4	29.80	59.0	902.0	12.99	-39.9	0	97.2	29.9	36.6	0	0	0	0	0	51.7	37.6	66.6
2017 03/26 16:45	31.3	103.6	200.2	30.0	29.79	59.0	879.0	12.99	-39.9	0	97.2	29.9	36.6	0	0	0	0	0	51.5	37.5	66.6
2017 03/26 17:00	31.6	103.7	223.9	32.8	29.79	59.0	895.0	13.01	-40.1	0	97.2	29.9	37.1	0	0	0	0	0	51.3	37.5	66.6
2017 03/26 17:15	31.8	103.7	214.2	36.4	29.78	58.8	901.0	12.99	-40.0	0	97.2	29.9	37.5	0	0	0	0	0	51.0	37.5	66.6
2017 03/26 17:30	31.7	103.7	206.8	40.4	29.77	58.7	879.0	12.99	-39.9	0	97.2	29.9	37.1	0	0	0	0	0	50.9	37.5	66.6
2017 03/26 17:45	31.8	103.7	213.6	28.1	29.77	58.5	809.0	13.01	-40.1	0	97.2	29.9	37.0	0	0	0	0	0	50.5	37.5	66.6
2017 03/26 18:00	31.6	103.6	217.4	35.5	29.77	58.3	777.0	13.00	-40.0	0	97.2	29.9	36.7	0	0	0	0	0	50.3	37.5	66.6
2017 03/26 18:15	31.7	103.6	226.4	34.6	29.78	58.0	706.0	12.99	-40.0	0	97.2	29.9	36.3	0	0	0	0	0	50.1	37.5	66.6
2017 03/26 18:30	31.3	103.6	239.8	26.9	29.79	57.7	704.0	13.01	-39.9	0	97.2	29.9	35.9	0	0	0	0	0	49.7	37.4	66.6
2017 03/26 18:45	31.2	103.7	269.6	18.2	29.80	57.4	549.6	12.99	-39.9	0	97.2	29.9	35.2	0	0	0	0	0	49.5	37.4	66.6
2017 03/26 19:00	31.1	103.8	202.7	21.5	29.80	57.1	289.4	13.03	-39.9	0	97.2	29.9	34.5	0	0	0	0	0	49.2	37.4	66.7
2017 03/26 19:15	30.7	103.7	237.2	28.8	29.80	56.9	212.4	13.02	-40.0	0	100.3	28.1	34.3	0	0	0	0	0	48.9	37.2	66.7
2017 03/26 19:30	29.9	103.9	266.7	16.4	29.80	56.7	119.8	12.99	-40.0	0	98.7	27.2	33.7	0	0	0	0	0	48.6	37.2	66.7
2017 03/26 19:45	29.4	103.9	236.4	18.4	29.80	56.4	44.8	13.01	-39.9	0	101.1	27.2	33.6	0	0	0	0	0	48.4	37.2	66.7
2017 03/26 20:00	29.1	103.8	250.8	22.4	29.79	56.1	32.2	12.99	-40.0	0	100.9	27.2	34.3	0	0	0	0	0	48.2	37.1	66.7
2017 03/26 20:15	28.8	103.9	236.9	28.4	29.79	55.9	31.6	13.01	-39.9	0	101.0	27.2	33.6	0	0	0	0	0	47.8	37.0	66.7
2017 03/26 20:30	28.1	103.9	238.0	32.0	29.79	55.4	30.2	13.00	-40.0	0	101.7	27.2	33.4	0	0	0	0	0	47.6	37.0	66.7
2017 03/26 20:45	28.0	103.8	258.9	25.9	29.79	55.2	30.5	12.99	-39.9	0	101.3	27.2	33.2	0	0	0	0	0	47.5	37.0	66.7
2017 03/26 21:00	28.1	103.8	241.7	23.9	29.79	54.8	30.2	13.01	-40.0	0	102.0	27.2	33.5	0	0	0	0	0	46.9	36.9	66.7
2017 03/26 21:15	27.9	103.7	255.3	26.9	29.79	54.6	29.9	12.99	-39.9	0	102.2	27.2	33.5	0	0	0	0	0	46.6	36.9	66.7
2017 03/26 21:30	28.0	103.4	249.4	25.4	29.78	54.1	29.9	13.01	-39.6	0	102.4	27.2	33.6	0	0	0	0	0	46.6	36.8	66.7
2017 03/26 21:45	27.9	103.3	239.2	28.7	29.78	53.9	32.6	13.01	-40.0	0	102.0	26.3	33.1	0	0	0	0	0	46.2	36.8	66.7
2017 03/26 22:00	27.5	103.1	232.5	41.4	29.77	53.5	36.6	13.00	-39.9	0	102.5	26.3	33.2	0	0	0	0	0	46.0	36.7	66.7
2017 03/26 22:15	27.7	102.9	247.3	26.8	29.78	53.1	35.6	13.00	-40.0	0	102.3	26.3	33.2	0	0	0	0	0	45.7	36.7	66.7
2017 03/26 22:30	27.7	102.9	252.6	30.0	29.79	52.9	44.4	12.99	-40.0	0	102.4	25.4	32.3	0	0	0	0	0	45.6	36.7	66.7
2017 03/26 22:45	27.4	102.7	242.0	36.7	29.79	52.4	31.9	12.99	-39.9	0	102.3	26.3	32.8	0	0	0	0	0	45.2	36.6	66.7
2017 03/26 23:00	27.4	102.5	256.2	33.5	29.79	52.1	33.6	13.00	-40.0	0	102.3	26.3	32.7	0	0	0	0	0	45.1	36.6	66.7
2017 03/26 23:15	27.2	102.4	233.0	33.8	29.78	51.8	33.3	13.00	-39.9	0	102.2	25.4	32.4	0	0	0	0	0	44.9	36.5	66.7
2017 03/26 23:30	27.1	102.2	259.5	35.1	29.78	51.4	33.3	12.99	-40.0	0	102.4	25.4	32.3	0	0	0	0	0	44.8	36.5	66.7
2017 03/26 23:45	27.1	102.3	218.8	27.5	29.79	51.1	33.3	12.98	-40.1	0	102.4	25.4	32.2	0	0	0	0	0	44.4	36.5	66.7
2017 03/27 00:00	26.9	102.1	224.5	25.3	29.79	50.9	30.5	12.98	-40.0	0	102.6	25.4	32.3	0	0	0	0	0	44.2	36.3	66.7
2017 03/27 00:15	26.9	102.1	236.4	37.2	29.78	50.7	30.5	13.00	-40.1	0	102.5	25.4	32.1	0	0	0	0	0	44.2	36.3	66.7
2017 03/27 00:30	26.9	102.1	229.8	33.3	29.78	50.4	29.2	12.99	-40.4	0	102.8	25.4	32.0	0	0	0	0	0	43.9	36.2	66.7
2017 03/27 00:45	26.6	101.9	244.3	36.8	29.78	50.1	29.9	12.98	-39.9	0	102.7	25.4	31.7	0	0	0	0	0	43.8	36.2	66.7
2017 03/27 01:00	26.3	101.9	251.1	36.0	29.77	49.9	30.2	13.01	-40.0	0	102.7	25.4	31.7	0	0	0	0	0	43.4	36.1	66.7
2017 03/27 01:15	26.6	101.8	235.7	36.7	29.77	49.6	29.9	13.00	-40.0	0	102.6	25.4	31.7	0	0	0	0	0	43.4	36.0	66.7
2017 03/27 01:30	26.6	101.9	252.5	29.8	29.77	49.5	30.2	12.98	-40.0	0	102.6	25.4	32.0	0	0	0	0	0	43.2	36.0	66.7
2017 03/27 01:45	26.6	101.9	231.6	30.2	29.77	49.2	30.2	12.99	-40.1	0	102.4	25.4	31.7	0	0	0	0	0	43.2	36.0	66.7
2017 03/27 02:00	26.7	101.9	232.8	34.4	29.77	49.0	30.5	13.00	-40.0	0	101.8	25.4	31.8	0	0	0	0	0	43.1	35.9	66.7
2017 03/27 02:15	26.6	101.9	234.2	34.7	29.78	48.8	29.9	12.98	-40.0	0	103.1	25.4	32.1	0	0	0	0	0	42.9	35.9	66.7
2017 03/27 02:30	26.4	102.0	233.8	36.1	29.79	48.6	29.2	12.98	-39.9	0	103.6	24.5	31.5	0	0	0	0	0	42.7	35.8	66.7
2017 03/27 02:45	25.8	101.7	239.8	38.6	29.80	48.4	29.9	13.00	-40.0	0	103.7	23.6	31.1	0	0	0	0	0	42.5	35.8	66.7
2017 03/27 03:00	25.6	101.6	222.3	35.3	29.79	48.2	30.5	13.00	-39.9	0	103.6	23.6	30.7	0	0	0	0	0	42.3	35.7	66.6
2017 03/27 03:15	25.4	101.4	214.7	37.5	29.79	48.0	29.5	12.99	-40.0	0	103.5	23.6	30.6	0	0	0	0	0	42.1	35.7	66.6
2017 03/27 03:30	25.5	101.4	180.9	34.5	29.79	47.8	30.5	13.01	-40.0	0	103.6	23.6	30.7	0	0	0	0	0	42.1	35.5	66.6
2017 03/27 03:45	25.2	101.4	226.6	37.3	29.79	47.5	30.9	13.02	-39.9	0	103.7	23.6	30.6	0	0	0	0	0	42.0	35.5	66.6
2017 03/27 04:00	25.1	101.3	237.4	33.2	29.79	47.3	29.9	13.01	-39.9	0	103.6	23.6	30.6	0	0	0	0	0	41.9	35.5	66.7
2017 03/27 04:15	25.0	101.3	239.9	25.8	29.80	47.1	30.5	13.01	-40.0	0	103.6	23.6	30.6	0	0	0	0	0	41.7	35.4	66.7
2017 03/27 04:30	25.0	101.4	237.3	27.1	29.79	47.0	30.5	12.98	-40.1	0	103.5	23.6	30.6	0	0	0	0	0	41.9	35.4	66.7
2017 03/27 04:45	25.0	101.3	247.1	26.5	29.80	46.9	30.5	12.98	-39.9	0	103.5	23.6	30.8	0	0	0	0	0	41.9	35.3	66.7
2017 03/27 05:00	25.1	101.4	246.4	28.8	29.80	46.9	29.9	13.00	-40.0	0	103.5	24.5	30.9	0	0	0	0	0	41.3	35.3	66.6
2017 03/27 05:15	25.4	101.3	243.9	28.8	29.80	46.8	30.9	12.97	-40.0	0	103.5	24.5	31.1	0	0	0	0	0	41.2	35.3	66.6
2017 03/27 05:30	25.4	101.4	242.1	29.5	29.81	46.7	29.5	12.99	-40.0	0	103.3	24.5	31.7	0	0	0	0	0	41.1	35.2	66.6
2017 03/27 05:45	25.4	101.5	235.8	30.6	29.81	46.6	31.6	12.99	-40.1	0	103.2	24.5	31.4	0	0	0	0	0	41.1	35.2	66.6
2017 03/27 06:00	25.2	101.4	251.8	28.9	29.81	46.5	29.9	13.00	-40.0	0	103.4	23.6	31.6	0	0	0	0	0	41.1	35.2	66.8
2017 03/27 06:15	25.4	101.5	234.9	22.4	29.83	46.5	30.2	13.00	-40.0	0	102.8	23.6	31.5	0	0	0	0	0	41.1	35.1	66.8
2017 03/27 06:30	25.2	101.3	251.7	21.9	29.84	46.4	34.3	13.01	-39.9	0	103.3	23.6	32.6	0	0	0	0	0	41.2	35.1	66.8
2017 03/27 06:45	25.2	101.5	243.1	16.1	29.85	46.4	104.5	13.01	-39.9	0	104.3	23.6	31.8	0	0	0	0	0	41.1	35.1	66.8
2017 03/27 07:00	25.2	101.3	230.3	20.0	29.86	46.3	271.8	12.98	-39.8	0	104.3	23.6	31.4	0	0	0	0	0	40.6	35.0	66.8
2017 03/27 07:15	25.2	101.3	221.0	21.6	29.86	46.3	534.4	12.98	-40.0	0	105.0	23.6	32.3	0	0	0	0	0	40.7	35.0	66.8
2017 03/27 07:30	25.4	101.4	226.7	26.2	29.86	46.3	675.9	12.99	-40.1	0	105.1	23.6	31.6	0	0	0	0	0	40.6	34.9	66.8
2017 03/27 07:45	25.4	101.5	240.7	27.5	29.86	46.3	749.0	13.00	-40.0	0	105.2	23.6	32.0	0	0	0	0	0	40.7	34.9	66.8
2017 03/27 08:00	25.2	101.4	230.5	25.9	29.87	46.2	782.0	12.99	-40.0	0	105.0	24.5	32.0	0	0	0	0	0	40.5	34.9	67.0
2017 03/27 08:15	25.6	101.6	224.7	22.2	29.88	46.1	817.0	12.99	-40.1	0	105.1	24.5	32.8	0	0	0	0	0	40.6	34.9	67.0
2017 03/27 08:30	25.7	101.7	236.4	23.2	29.89	46.1	841.0	12.98	-40.1	0	105.1	24.5	32.8	0	0	0	0	0	40.5	34.9	67.0
2017 03/27 08:45	26.0	101.8	207.0	30.2	29.89	46.1	846.0	13.00	-39.9	0	105.2	24.5	32.7	0	0	0	0	0	40.3	34.8	67.0
2017 03/27 09:00	26.3	102.1	227.7	24.2	29.89	46.1	882.0	13.00	-40.0	0	105.2	25.4	33.3	0	0	0	0	0	40.2	34.8	67.1
2017 03/27 09:15	27.1	102.1	221.8	25.3	29.90	46.1	899.0	12.98	-39.9	0	105.2	25.4	33.7	0	0	0	0	0	40.4	34.8	67.1
2017 03/27 09:30	27.2	102.3	228.5	29.1	29.91	46.1	883.0	13.00	-40.0	0	105.3	25.4	34.1	0	0	0	0	0	40.5	34.8	67.1
2017 03/27 09:45	27.6	102.4	230.8	26.9	29.93	46.3	902.0	12.98	-40.0	0	105.1	26.3	34.9	0	0	0	0	0	40.5	34.8	67.1
2017 03/27 10:00	27.9	102.6	237.2	24.4	29.94	46.3	907.0	13.00	-40.0	0	105.1	26.3	34.4	0	0	0	0	0	40.7	34.8	67.2
2017 03/27 10:15	28.3	102.8	232.9	34.9	29.94	46.5	928.0	12.99	-40.1	0	104.7	28.1	35.2	0	0	0	0	0	40.7	34.8	67.2
2017 03/27 10:30	28.9	102.9	224.6	35.9	29.95	46.8	926.0	12.99	-40.0	0	104.9	27.2	36.1	0	0	0	0	0	41.2	34.8	67.2
2017 03/27 10:45	28.9	103.2	238.8	26.6	29.97	47.0	928.0	12.99	-40.0	0	105.1	27.2	35.9	0	0	0	0	0	42.0	34.8	67.2
2017 03/27 11:00	29.4	103.0	227.8	29.2	29.97	47.4	928.0	12.99	-39.9	0	104.7	28.1	35.1	0	0	0	0	0	42.5	34.9	67.2
2017 03/27 11:15	29.6	103.2	232.5	28.7	29.98	47.6	921.0	12.98	-39.6	0	104.6	28.1	36.2	0	0	0	0	0	43.1	34.9	67.2
2017 03/27 11:30	30.1	103.3	216.1	25.8	29.98	48.0	938.0	12.99	-40.0	0	104.7	29.0	37.0	0	0	0	0	0	43.5	34.9	67.2
2017 03/27 11:45	30.8	103.4	255.1	23.4	30.00	48.3	930.0	13.00	-40.0	0	104.6	29.0	35.8	0	0	0	0	0	44.4	35.0	67.2
2017 03/27 12:00	31.1	103.5	224.5	30.0	30.02	48.7	931.0	13.00	-39.9	0	104.5	29.0	38.4	0	0	0	0	0	45.3	35.1	67.2
2017 03/27 12:15	31.3	103.3	241.2	35.3	30.02	49.1	926.0	13.00	-40.0	0	104.4	29.0	37.0	0	0	0	0	0	46.1	35.1	67.2
2017 03/27 12:30	31.2	103.5	252.8	24.9	30.04	49.5	938.0	13.01	-39.9	0	104.4	29.0	37.9	0	0	0	0	0	46.6	35.2	67.2
2017 03/27 12:45	31.7	103.4	249.6	29.8	30.06	50.1	942.0	12.98	-39.9	0	104.4	29.0	38.9	0	0	0	0	0	47.2	35.3	67.2
2017 03/27 13:00	31.7	103.5	254.1	24.6	30.08	50.5	939.0	13.00	-39.9	0	104.4	29.0	39.9	0	0	0	0	0	48.3	35.4	67.3
2017 03/27 13:15	31.2	103.7	232.3	21.9	30.08	51.0	931.0	12.98	-40.0	0	104.4	29.0	36.8	0	0	0	0	0	48.7	35.5	67.3
2017 03/27 13:30	31.0	103.7	212.1	30.7	30.07	51.4	949.0	13.00	-40.0	0	104.1	28.1	36.8	0	0	0	0	0	48.8	35.5	67.3
2017 03/27 13:45	31.2	103.6	219.5	29.5	30.09	51.8	942.0	12.99	-40.0	0	103.9	29.9	39.0	0	0	0	0	0	49.4	35.7	67.3
2017 03/27 14:00	31.4	103.5	236.1	31.3	30.09	52.0	934.0	13.00	-40.1	0	103.6	30.8	38.9	0	0	0	0	0	49.7	35.8	67.2
2017 03/27 14:15	31.3	103.5	262.6	23.3	30.09	52.0	941.0	12.99	-40.0	0	103.5	29.9	37.6	0	0	0	0	0	50.0	35.9	67.2
2017 03/27 14:30	31.4	103.5	213.9	24.2	30.10	52.0	937.0	13.02	-40.0	0	103.4	29.9	37.9	0	0	0	0	0	50.3	35.9	67.2
2017 03/27 14:45	31.6	103.5	212.1	34.4	30.10	51.9	929.0	12.98	-40.1	0	103.1	29.0	38.1	0	0	0	0	0	50.2	36.0	67.2
2017 03/27 15:00	31.3	103.6	241.9	34.7	30.11	51.8	939.0	12.98	-40.0	0	103.4	29.0	38.1	0	0	0	0	0	50.1	36.0	67.1
2017 03/27 15:15	31.2	103.7	254.4	23.5	30.11	51.6	912.0	12.99	-40.0	0	103.2	29.9	37.7	0	0	0	0	0	50.1	36.0	67.1
2017 03/27 15:30	30.7	103.7	238.6	35.3	30.11	51.4	923.0	12.98	-40.0	0	103.3	29.0	37.2	0	0	0	0	0	50.3	36.0	67.1
2017 03/27 15:45	30.7	103.7	241.3	34.4	30.12	51.1	919.0	13.01	-39.9	0	103.2	29.0	37.3	0	0	0	0	0	50.0	36.0	67.1
2017 03/27 16:00	30.5	103.7	277.5	12.4	30.12	50.9	883.0	13.00	-40.1	0	103.0	29.0	36.6	0	0	0	0	0	49.6	36.0	67.1
2017 03/27 16:15	30.6	103.7	260.4	25.8	30.13	50.8	907.0	13.01	-40.0	0	102.9	28.1	36.0	0	0	0	0	0	49.0	36.0	67.1
2017 03/27 16:30	30.5	103.7	225.2	21.6	30.13	50.7	904.0	13.01	-40.1	0	103.0	29.0	36.3	0	0	0	0	0	48.6	36.0	67.1
2017 03/27 16:45	30.4	103.7	212.7	24.0	30.13	50.7	889.0	12.99	-40.0	0	103.1	28.1	36.3	0	0	0	0	0	48.4	35.9	67.1
2017 03/27 17:00	29.9	103.7	227.9	26.5	30.13	50.5	885.0	13.00	-40.0	0	103.1	28.1	35.4	0	0	0	0	0	48.0	35.9	67.2
2017 03/27 17:15	29.6	103.7	229.1	29.3	30.12	50.5	875.0	13.00	-40.0	0	103.0	27.2	35.0	0	0	0	0	0	47.6	35.9	67.2
2017 03/27 17:30	29.0	103.6	230.1	31.1	30.12	50.3	866.0	13.00	-40.0	0	102.8	27.2	34.3	0	0	0	0	0	47.5	35.9	67.2
2017 03/27 17:45	28.9	103.5	228.6	31.5	30.13	50.2	842.0	13.00	-40.2	0	103.1	26.3	34.3	0	0	0	0	0	47.0	35.9	67.2
2017 03/27 18:00	28.8	103.4	259.1	17.1	30.14	50.1	852.0	12.99	-40.0	0	103.0	27.2	34.3	0	0	0	0	0	46.5	35.8	67.2
2017 03/27 18:15	28.9	103.3	268.8	17.3	30.15	49.9	824.0	13.01	-40.0	0	102.9	27.2	34.1	0	0	0	0	0	46.0	35.8	67.2
2017 03/27 18:30	28.4	103.1	271.2	22.2	30.16	49.9	785.0	13.00	-40.0	0	102.9	26.3	34.0	0	0	0	0	0	45.7	35.8	67.2
2017 03/27 18:45	28.4	103.0	225.3	19.4	30.15	49.8	667.0	12.99	-40.1	0	103.2	26.3	33.7	0	0	0	0	0	45.3	35.7	67.2
2017 03/27 19:00	28.0	102.8	243.6	22.5	30.14	49.6	668.7	12.98	-40.0	0	103.3	26.3	33.5	0	0	0	0	0	45.0	35.7	67.2
2017 03/27 19:15	28.0	102.6	242.8	24.2	30.15	49.5	492.6	12.99	-40.0	0	103.3	26.3	33.6	0	0	0	0	0	44.7	35.7	67.2
2017 03/27 19:30	27.5	102.4	227.3	31.8	30.13	49.3	217.1	12.98	-40.0	0	103.3	26.3	33.1	0	0	0	0	0	44.3	35.7	67.2
2017 03/27 19:45	27.4	102.5	234.5	31.6	30.14	49.1	49.2	13.00	-40.0	0	103.3	26.3	33.2	0	0	0	0	0	44.1	35.5	67.2
2017 03/27 20:00	27.3	102.4	231.7	29.4	30.14	48.8	2.7	13.00	-40.1	0	102.9	26.3	33.1	0	0	0	0	0	43.9	35.5	67.0
2017 03/27 20:15	27.1	102.2	244.0	19.8	30.14	48.6	0.3	13.01	-40.1	0	103.3	25.4	33.0	0	0	0	0	0	43.5	35.5	67.0
2017 03/27 20:30	27.3	102.3	247.2	32.1	30.14	48.4	0.0	12.99	-40.0	0	103.0	25.4	33.1	0	0	0	0	0	43.3	35.5	67.0
2017 03/27 20:45	27.3	102.1	271.2	24.8	30.15	48.3	10.9	13.00	-39.9	0	103.3	25.4	32.8	0	0	0	0	0	43.2	35.4	67.0
2017 03/27 21:00	27.3	102.1	264.4	24.1	30.14	48.2	13.2	12.98	-39.9	0	103.4	25.4	33.0	0	0	0	0	0	42.7	35.4	67.0
2017 03/27 21:15	27.1	102.1	237.1	25.3	30.13	48.0	10.5	13.00	-40.0	0	103.2	25.4	32.6	0	0	0	0	0	42.6	35.3	67.0
2017 03/27 21:30	26.9	102.1	246.3	25.1	30.13	47.8	15.6	12.98	-40.0	0	103.3	25.4	32.8	0	0	0	0	0	42.3	35.3	67.0
2017 03/27 21:45	26.9	102.1	251.2	31.1	30.12	47.5	17.0	13.00	-40.0	0	103.2	25.4	32.4	0	0	0	0	0	42.1	35.3	67.0
2017 03/27 22:00	26.9	102.0	256.8	31.1	30.12	47.4	4.1	12.98	-40.0	0	102.2	25.4	32.3	0	0	0	0	0	42.0	35.2	67.1
2017 03/27 22:15	26.7	101.9	249.4	32.2	30.12	47.0	2.7	12.98	-40.1	0	103.3	25.4	32.3	0	0	0	0	0	41.9	35.2	67.1
2017 03/27 22:30	26.3	101.9	274.3	35.3	30.12	46.8	4.1	13.00	-40.1	0	103.4	24.5	32.3	0	0	0	0	0	41.6	35.2	67.1
2017 03/27 22:45	26.1	101.8	235.7	34.7	30.12	46.5	23.8	13.00	-39.9	0	103.5	24.5	31.6	0	0	0	0	0	41.5	35.2	67.1
2017 03/27 23:00	26.1	101.7	238.5	39.1	30.12	46.2	0.0	13.02	-40.0	0	103.5	24.5	31.3	0	0	0	0	0	41.2	35.1	67.1
2017 03/27 23:15	26.0	101.6	236.5	33.3	30.12	45.9	0.0	12.98	-39.9	0	103.4	24.5	31.3	0	0	0	0	0	41.1	35.0	67.1
2017 03/27 23:30	25.7	101.6	229.7	27.9	30.12	45.6	0.0	13.00	-40.1	0	103.5	24.5	31.3	0	0	0	0	0	41.1	35.0	67.1
2017 03/27 23:45	25.5	101.5	217.5	32.9	30.11	45.3	0.0	12.97	-40.0	0	103.4	24.5	31.2	0	0	0	0	0	41.1	35.0	67.1
2017 03/28 00:00	25.5	101.5	255.2	36.0	30.11	45.0	0.0	13.00	-40.0	0	103.5	23.6	31.3	0	0	0	0	0	40.7	34.9	67.1
2017 03/28 00:15	25.4	101.5	240.9	32.8	30.12	44.8	-0.3	12.98	-40.0	0	103.4	24.5	31.2	0	0	0	0	0	40.6	34.9	67.1
2017 03/28 00:30	25.4	101.4	255.4	30.1	30.11	44.6	0.0	12.98	-39.9	0	103.3	24.5	31.1	0	0	0	0	0	40.3	34.9	67.1
2017 03/28 00:45	25.1	101.5	226.7	28.8	30.11	44.4	-0.3	12.99	-40.0	0	103.5	23.6	31.1	0	0	0	0	0	40.4	34.8	67.1
2017 03/28 01:00	25.5	101.5	251.3	35.5	30.11	44.2	0.0	12.97	-40.1	0	103.4	23.6	30.8	0	0	0	0	0	40.2	34.8	67.0
2017 03/28 01:15	25.1	101.2	218.1	36.6	30.09	44.0	0.0	12.98	-39.9	0	103.3	23.6	30.6	0	0	0	0	0	39.9	34.8	67.0
2017 03/28 01:30	25.1	101.3	239.5	42.7	30.08	43.8	0.0	12.99	-39.9	0	103.3	23.6	30.5	0	0	0	0	0	39.9	34.7	67.0
2017 03/28 01:45	25.0	101.2	235.8	39.1	30.08	43.4	0.0	13.02	-39.9	0	103.3	23.6	30.5	0	0	0	0	0	39.7	34.7	67.0
2017 03/28 02:00	24.9	101.1	226.3	36.9	30.08	43.2	0.0	13.00	-40.0	0	103.3	23.6	30.3	0	0	0	0	0	39.6	34.5	67.1
2017 03/28 02:15	24.8	101.1	226.8	37.3	30.08	43.0	0.0	12.99	-39.9	0	103.3	23.6	30.4	0	0	0	0	0	39.6	34.5	67.1
2017 03/28 02:30	24.8	101.2	243.4	39.5	30.09	42.8	0.0	13.00	-39.9	0	103.3	23.6	30.3	0	0	0	0	0	39.4	34.5	67.1
2017 03/28 02:45	25.0	101.3	226.2	33.9	30.09	42.6	0.7	13.00	-39.9	0	103.2	23.6	30.4	0	0	0	0	0	39.2	34.5	67.1
2017 03/28 03:00	25.0	101.3	241.3	36.6	30.09	42.5	0.7	12.98	-39.9	0	103.3	23.6	30.7	0	0	0	0	0	39.2	34.4	67.2
2017 03/28 03:15	25.1	101.3	221.3	38.8	30.09	42.3	0.7	12.99	-40.0	0	103.3	23.6	30.6	0	0	0	0	0	38.9	34.4	67.2
2017 03/28 03:30	25.2	101.3	242.5	35.6	30.08	42.1	0.0	12.98	-40.0	0	103.2	23.6	30.4	0	0	0	0	0	38.9	34.4	67.2
2017 03/28 03:45	25.1	101.3	232.9	32.8	30.09	42.0	0.0	12.97	-40.0	0	103.2	23.6	30.4	0	0	0	0	0	38.9	34.3	67.2
2017 03/28 04:00	25.1	101.2	227.9	29.1	30.08	41.9	0.0	13.00	-40.0	0	103.2	23.6	30.5	0	0	0	0	0	38.6	34.3	67.2
2017 03/28 04:15	24.9	101.2	242.3	30.8	30.08	41.9	0.0	12.98	-39.9	0	103.1	23.6	30.6	0	0	0	0	0	38.5	34.3	67.2
2017 03/28 04:30	25.0	101.2	223.9	27.9	30.08	41.8	0.0	12.96	-40.0	0	103.1	23.6	30.4	0	0	0	0	0	38.5	34.2	67.2
2017 03/28 04:45	25.0	101.1	229.1	30.9	30.09	41.8	0.0	12.98	-40.0	0	103.1	23.6	30.5	0	0	0	0	0	38.4	34.2	67.2
2017 03/28 05:00	25.0	101.2	231.5	32.7	30.08	41.8	0.0	13.00	-40.0	0	103.1	23.6	30.6	0	0	0	0	0	38.2	34.2	67.2
2017 03/28 05:15	24.9	101.2	217.3	27.2	30.09	41.8	0.0	12.97	-39.9	0	103.1	23.6	30.4	0	0	0	0	0	38.1	34.2	67.2
2017 03/28 05:30	25.0	101.3	230.9	22.0	30.10	41.8	0.0	12.98	-40.0	0	103.1	23.6	31.2	0	0	0	0	0	38.1	34.1	67.2
2017 03/28 05:45	25.1	101.3	231.1	27.1	30.09	41.8	0.0	12.98	-40.0	0	103.1	23.6	30.9	0	0	0	0	0	37.9	34.1	67.2
2017 03/28 06:00	25.0	101.3	216.2	25.9	30.09	41.8	0.0	13.00	-40.1	0	103.1	23.6	30.9	0	0	0	0	0	37.9	34.1	67.2
2017 03/28 06:15	25.0	101.3	232.7	27.6	30.09	41.8	0.3	13.00	-40.0	0	103.1	23.6	30.9	0	0	0	0	0	37.8	34.0	67.2
2017 03/28 06:30	25.2	101.3	221.1	28.7	30.08	41.8	4.8	13.00	-40.0	0	103.1	23.6	31.1	0	0	0	0	0	37.8	34.1	67.2
2017 03/28 06:45	25.1	101.4	226.9	35.6	30.08	41.8	74.0	12.98	-39.9	0	103.0	24.5	31.5	0	0	0	0	0	37.7	34.0	67.2
2017 03/28 07:00	25.4	101.3	213.1	36.2	30.08	41.8	283.4	12.99	-40.0	0	103.0	24.5	31.3	0	0	0	0	0	37.7	34.0	67.1
2017 03/28 07:15	25.6	101.3	217.9	32.1	30.08	41.8	530.1	12.99	-40.0	0	102.9	24.5	31.7	0	0	0	0	0	37.7	34.0	67.1
2017 03/28 07:30	25.5	101.4	230.6	34.0	30.08	41.7	605.8	12.98	-40.0	0	102.9	24.5	31.4	0	0	0	0	0	37.7	34.0	67.1
2017 03/28 07:45	25.6	101.5	234.0	36.8	30.09	41.7	707.0	12.97	-40.0	0	102.8	24.5	31.8	0	0	0	0	0	37.7	33.9	67.1
2017 03/28 08:00	25.7	101.3	225.7	36.0	30.09	41.5	761.0	13.00	-40.0	0	102.9	24.5	31.8	0	0	0	0	0	37.5	33.9	67.1
2017 03/28 08:15	26.1	101.5	237.3	38.8	30.09	41.6	808.0	12.99	-40.0	0	103.0	24.5	32.5	0	0	0	0	0	37.4	33.9	67.1
2017 03/28 08:30	26.1	101.6	215.3	39.5	30.10	41.5	802.0	12.99	-40.1	0	103.2	24.5	32.4	0	0	0	0	0	37.4	33.9	67.1
2017 03/28 08:45	26.2	101.6	228.8	35.9	30.11	41.4	814.0	12.98	-40.0	0	103.2	24.5	32.3	0	0	0	0	0	37.2	33.7	67.1
2017 03/28 09:00	26.3	101.7	225.2	32.5	30.11	41.4	848.0	13.00	-40.0	0	103.0	25.4	32.3	0	0	0	0	0	37.4	33.9	67.2
2017 03/28 09:15	26.6	101.7	239.8	36.1	30.11	41.3	859.0	12.99	-40.0	0	103.1	25.4	33.1	0	0	0	0	0	37.4	33.9	67.2
2017 03/28 09:30	26.9	102.0	226.2	37.2	30.10	41.2	876.0	13.00	-39.9	0	103.0	26.3	33.3	0	0	0	0	0	37.2	33.7	67.2
2017 03/28 09:45	27.3	102.0	219.1	35.2	30.11	41.1	884.0	12.99	-40.0	0	103.0	26.3	33.6	0	0	0	0	0	37.5	33.7	67.2
2017 03/28 10:00	27.8	102.4	232.3	35.3	30.12	41.1	891.0	13.00	-40.4	0	103.0	26.3	33.6	0	0	0	0	0	37.6	33.9	67.2
2017 03/28 10:15	28.3	102.4	228.9	33.8	30.12	41.1	893.0	12.98	-40.0	0	102.9	27.2	33.7	0	0	0	0	0	37.6	33.9	67.2
2017 03/28 10:30	28.7	102.6	229.7	33.5	30.12	41.1	913.0	13.00	-39.9	0	102.9	27.2	34.9	0	0	0	0	0	37.8	33.9	67.2
2017 03/28 10:45	29.5	102.7	217.9	33.4	30.13	41.1	919.0	12.99	-40.0	0	102.9	28.1	35.1	0	0	0	0	0	38.1	33.9	67.2
2017 03/28 11:00	29.9	102.8	242.5	35.1	30.13	41.3	920.0	12.98	-40.0	0	102.8	29.0	36.3	0	0	0	0	0	39.0	33.9	67.4
2017 03/28 11:15	30.4	102.8	228.7	33.1	30.14	41.3	921.0	13.01	-39.9	0	102.8	29.0	36.8	0	0	0	0	0	39.3	33.9	67.4
2017 03/28 11:30	30.9	102.9	223.9	31.4	30.14	41.5	922.0	13.00	-40.0	0	102.8	29.0	37.0	0	0	0	0	0	39.4	34.0	67.4
2017 03/28 11:45	31.2	103.0	245.6	29.5	30.14	41.7	930.0	12.98	-40.0	0	102.8	29.0	38.7	0	0	0	0	0	39.0	34.0	67.4
2017 03/28 12:00	31.8	103.1	227.4	33.1	30.15	41.9	935.0	12.98	-40.0	0	102.8	29.0	38.6	0	0	0	0	0	40.0	34.1	67.3
2017 03/28 12:15	31.7	103.2	230.3	34.9	30.15	42.1	912.0	12.98	-40.0	0	102.7	30.8	39.3	0	0	0	0	0	41.4	34.2	67.3
2017 03/28 12:30	31.5	103.3	232.4	31.5	30.16	42.3	920.0	12.98	-40.1	0	102.6	30.8	38.8	0	0	0	0	0	42.1	34.3	67.3
2017 03/28 12:45	31.8	103.3	238.5	29.5	30.16	42.5	922.0	12.98	-40.0	0	102.5	31.7	39.1	0	0	0	0	0	43.3	34.5	67.3
2017 03/28 13:00	31.5	103.3	236.1	25.4	30.16	42.7	924.0	12.97	-40.0	0	102.5	31.7	39.6	0	0	0	0	0	44.4	34.7	67.3
2017 03/28 13:15	30.2	103.4	241.4	29.9	30.16	42.9	929.0	12.99	-40.0	0	102.4	32.6	40.0	0	0	0	0	0	45.3	34.9	67.3
2017 03/28 13:30	30.1	103.4	228.3	31.8	30.16	43.1	922.0	13.00	-40.0	0	102.4	32.6	40.5	0	0	0	0	0	46.0	35.0	67.3
2017 03/28 13:45	30.2	103.4	247.9	28.6	30.16	43.2	934.0	13.01	-39.9	0	101.9	35.3	41.7	0	0	0	0	0	46.9	35.1	67.3
2017 03/28 14:00	30.5	103.4	252.4	29.1	30.16	43.3	932.0	13.00	-40.0	0	102.0	33.5	41.4	0	0	0	0	0	47.8	35.3	67.4
2017 03/28 14:15	30.2	103.4	230.0	31.5	30.16	43.4	927.0	12.98	-40.0	0	101.9	33.5	41.4	0	0	0	0	0	48.3	35.7	67.4
2017 03/28 14:30	30.2	103.4	239.3	35.2	30.16	43.4	938.0	13.00	-40.0	0	101.9	33.5	41.1	0	0	0	0	0	48.7	35.7	67.4
2017 03/28 14:45	30.9	103.3	239.2	30.8	30.16	43.5	929.0	12.99	-40.1	0	101.8	34.4	42.5	0	0	0	0	0	49.0	35.8	67.4
2017 03/28 15:00	30.2	103.3	222.8	28.0	30.17	43.5	932.0	12.98	-40.0	0	101.7	34.4	42.3	0	0	0	0	0	49.4	35.9	67.3
2017 03/28 15:15	30.7	103.4	254.4	22.2	30.17	43.6	916.0	12.98	-39.9	0	101.7	34.4	41.5	0	0	0	0	0	49.6	36.0	67.3
2017 03/28 15:30	30.4	103.3	239.4	34.1	30.16	43.8	933.0	12.97	-40.1	0	101.7	34.4	42.1	0	0	0	0	0	49.7	36.0	67.3
2017 03/28 15:45	30.5	103.2	237.5	28.2	30.16	43.9	927.0	12.98	-40.0	0	101.7	34.4	42.0	0	0	0	0	0	50.0	36.0	67.3
2017 03/28 16:00	30.6	103.2	230.7	32.8	30.15	44.1	919.0	13.00	-39.9	0	101.7	34.4	42.9	0	0	0	0	0	50.2	36.1	67.3
2017 03/28 16:15	30.5	103.3	239.5	26.8	30.15	44.2	909.0	13.00	-40.1	0	101.7	34.4	41.7	0	0	0	0	0	50.4	36.1	67.3
2017 03/28 16:30	30.7	103.2	215.4	31.6	30.14	44.4	876.0	13.00	-40.0	0	101.6	33.5	40.2	0	0	0	0	0	50.4	36.1	67.3
2017 03/28 16:45	30.5	103.4	227.1	29.8	30.16	44.6	869.0	12.98	-40.0	0	101.5	33.5	40.4	0	0	0	0	0	50.2	36.2	67.3
2017 03/28 17:00	30.2	103.2	237.8	27.9	30.16	44.7	857.0	12.98	-40.0	0	101.6	32.6	39.9	0	0	0	0	0	49.8	36.1	67.3
2017 03/28 17:15	30.9	103.3	229.0	24.6	30.16	44.9	894.0	12.97	-40.1	0	101.5	33.5	40.8	0	0	0	0	0	49.6	36.1	67.3
2017 03/28 17:30	31.1	103.4	216.2	24.9	30.16	45.0	850.0	12.97	-39.8	0	101.5	33.5	40.5	0	0	0	0	0	49.6	36.1	67.3
2017 03/28 17:45	31.2	103.4	219.1	27.9	30.16	45.0	865.0	12.98	-40.1	0	101.4	33.5	40.0	0	0	0	0	0	49.3	36.1	67.3
2017 03/28 18:00	31.1	103.4	221.7	25.2	30.15	45.1	873.0	12.99	-40.1	0	101.4	33.5	40.4	0	0	0	0	0	49.3	36.1	67.4
2017 03/28 18:15	31.5	103.3	210.8	22.5	30.16	45.2	847.0	13.00	-40.0	0	101.3	33.5	40.0	0	0	0	0	0	49.0	36.0	67.4
2017 03/28 18:30	31.3	103.4	216.3	19.6	30.15	45.3	797.0	13.00	-40.0	0	101.1	33.5	39.6	0	0	0	0	0	48.8	36.0	67.4
2017 03/28 18:45	31.0	103.3	213.9	23.6	30.15	45.5	685.8	13.00	-40.0	0	101.4	32.6	39.1	0	0	0	0	0	48.6	36.0	67.4
2017 03/28 19:00	31.1	103.3	210.7	20.6	30.16	45.5	607.1	13.00	-40.1	0	101.4	32.6	38.5	0	0	0	0	0	48.3	36.0	67.3
2017 03/28 19:15	30.9	103.3	214.7	21.8	30.15	45.5	463.2	13.00	-40.0	0	101.4	32.6	38.1	0	0	0	0	0	47.8	35.9	67.3
2017 03/28 19:30	30.6	103.2	207.1	16.9	30.15	45.5	255.2	13.00	-40.0	0	101.4	32.6	37.9	0	0	0	0	0	47.6	35.9	67.3
2017 03/28 19:45	30.6	102.8	202.1	21.8	30.15	45.5	48.2	12.98	-39.9	0	101.3	30.8	37.6	0	0	0	0	0	47.1	35.9	67.3
2017 03/28 20:00	30.7	102.3	253.0	20.6	30.14	45.5	2.7	13.00	-39.9	0	101.3	31.7	38.0	0	0	0	0	0	46.6	35.9	0.0
2017 03/28 20:15	31.0	101.0	207.8	34.0	30.14	45.3	20.7	12.97	-40.0	0	101.1	31.7	38.5	0	0	0	0	0	46.2	35.8	0.0
2017 03/28 20:30	31.3	96.1	216.8	34.4	30.14	45.2	23.1	12.98	-40.0	0	101.2	31.7	38.6	0	0	0	0	0	46.1	35.8	0.0
2017 03/28 20:45	32.4	86.3	221.1	30.6	30.14	45.1	22.1	13.02	-39.9	0	101.3	31.7	38.6	0	0	0	0	0	45.7	35.8	0.0
2017 03/28 21:00	32.6	85.0	224.0	30.5	30.14	45.0	21.0	12.97	-39.9	0	101.2	31.7	38.4	0	0	0	0	0	45.5	35.8	0.0
2017 03/28 21:15	32.9	84.2	208.5	29.8	30.13	44.8	28.2	12.98	-40.1	0	101.1	31.7	38.4	0	0	0	0	0	45.2	35.7	0.0
2017 03/28 21:30	32.4	86.2	214.5	26.1	30.13	44.6	6.4	13.01	-40.0	0	101.1	31.7	38.2	0	0	0	0	0	45.0	35.7	0.0
2017 03/28 21:45	31.9	89.9	210.2	17.3	30.12	44.4	25.4	13.00	-40.0	0	101.1	31.7	38.0	0	0	0	0	0	44.7	35.7	0.0
2017 03/28 22:00	32.2	92.8	221.2	21.1	30.11	44.2	22.4	12.98	-40.1	0	101.1	31.7	37.7	0	0	0	0	0	44.4	35.7	0.0
2017 03/28 22:15	31.7	96.1	225.5	23.1	30.11	44.2	4.8	13.00	-39.9	0	101.1	30.8	37.2	0	0	0	0	0	44.2	35.7	0.0
2017 03/28 22:30	30.9	101.1	191.7	25.5	30.09	44.0	7.5	13.00	-40.0	0	101.1	29.9	36.7	0	0	0	0	0	44.1	35.7	0.0
2017 03/28 22:45	30.5	102.7	196.1	24.5	30.09	43.8	0.0	13.00	-39.9	0	101.1	29.0	35.5	0	0	0	0	0	43.8	35.5	0.0
2017 03/28 23:00	30.2	103.0	187.7	19.3	30.07	43.8	0.0	13.00	-39.8	0	101.1	29.0	35.0	0	0	0	0	0	43.4	35.5	0.0

Where:
  YYYY   = Year
  MM/DD  = Month / Date
  hh:mm  = Hour  : Minute
  Temp   = Temperature outside       (F)              @ 5720', on tower
  Humid  = Humidity    outside       (%)              @ 5720'
  W_dir  = Wind direction / Azimuth  (degrees)        @ 5720'
  W_spd  = Wind speed                (miles per hour) @ 5720'
  Barom  = Sea-level air pressure    (inches of mercury)
  T_int  = Temperature (internal)    (F)              - inside barometer case
  Light  = Outside light level       (no units)       - 0 = dark, 1000 = bright
  Power  = Power supply rail         (Volts)
  Temp2  = Temperature (back-up)     (F)
  P2     = datalogger counter channel "P2" (to be static burst counter)
  Snow   = Snow depth,  mid-mountain (inches)         @ 5010'
  T_mid  = Temperature, mid-mountain (F)              @ 5010'
  T_base = Temperature @ south lodge (F)              @ 4700'
  Precip = Precipitation total       (inches)         @ 4800' (near US20 mp81)

Notes:
1999 07/17
   Barometric data in this listing should have an additional
   temperature correction applied to it, based on the sensor's
   internal temperature:

   P_corrected = Barom + (-0.0223 * T_int) + 0.8887  (inches Hg)

2004 07/03
   The air pressure correction equation has not been checked
   in a long time.  The air pressure reading is best used only
   to observe general trends.

2006 11/18
   Added precipitation gauge.  Depth is precipitation equivalent in water,
   for the water year (beginning October 1st) at the Hogg Pass
   SnoTel station.

2011 03/11
  Fixed data column title bug from adding "T_base" after "T_mid".
  If you notice a bug like this it will get fixed a whole lot sooner
  if you tell me about it.